Wetterdaten: Sonntag, 07.02.2016
Datum Zeit Temp. Aussen Temp. o. S. +5cm Feuchte Auss BlattFeu 1 Luftdruck Regen Sonnenschein Regendauer Solar Windben Empfang
07.02.2016 00:00 9,9 C 10,6 C 8,3 C 79 % 0 lf 1000,2 hPa 0,0 l/m 0 min 0 min 0 W/m 20,9 km/h (4 Bft) 92,86 %
07.02.2016 00:02 10,0 C 10,6 C 8,3 C 79 % 0 lf 1000,2 hPa 0,0 l/m 0 min 0 min 0 W/m 31,4 km/h (5 Bft) 96,97 %
07.02.2016 00:04 10,0 C 10,6 C 8,3 C 78 % 0 lf 1000,2 hPa 0,0 l/m 0 min 0 min 0 W/m 20,9 km/h (4 Bft) 94,00 %
07.02.2016 00:06 10,0 C 10,6 C 8,3 C 78 % 0 lf 1000,2 hPa 0,0 l/m 0 min 0 min 0 W/m 18,8 km/h (3 Bft) 93,62 %
07.02.2016 00:08 10,1 C 10,6 C 8,3 C 78 % 0 lf 1000,1 hPa 0,0 l/m 0 min 0 min 0 W/m 29,3 km/h (5 Bft) 95,74 %
07.02.2016 00:10 10,1 C 10,6 C 8,3 C 78 % 0 lf 1000,1 hPa 0,0 l/m 0 min 0 min 0 W/m 27,2 km/h (4 Bft) 93,62 %
07.02.2016 00:12 10,1 C 10,6 C 8,3 C 78 % 0 lf 1000,2 hPa 0,0 l/m 0 min 0 min 0 W/m 31,4 km/h (5 Bft) 95,65 %
07.02.2016 00:14 10,1 C 10,6 C 8,3 C 78 % 0 lf 1000,2 hPa 0,0 l/m 0 min 0 min 0 W/m 23,0 km/h (4 Bft) 95,74 %
07.02.2016 00:16 10,2 C 10,6 C 8,3 C 78 % 0 lf 1000,1 hPa 0,0 l/m 0 min 0 min 0 W/m 18,8 km/h (3 Bft) 93,62 %
07.02.2016 00:18 10,2 C 10,6 C 8,3 C 77 % 0 lf 1000,1 hPa 0,0 l/m 0 min 0 min 0 W/m 18,8 km/h (3 Bft) 97,87 %
07.02.2016 00:20 10,2 C 10,6 C 8,3 C 77 % 0 lf 1000,2 hPa 0,0 l/m 0 min 0 min 0 W/m 16,7 km/h (3 Bft) 93,62 %
07.02.2016 00:22 10,2 C 10,0 C 8,3 C 77 % 0 lf 1000,0 hPa 0,0 l/m 0 min 0 min 0 W/m 20,9 km/h (4 Bft) 93,62 %
07.02.2016 00:24 10,2 C 10,0 C 8,3 C 77 % 0 lf 1000,0 hPa 0,0 l/m 0 min 0 min 0 W/m 20,9 km/h (4 Bft) 95,65 %
07.02.2016 00:26 10,2 C 10,0 C 8,3 C 77 % 0 lf 1000,1 hPa 0,0 l/m 0 min 0 min 0 W/m 25,1 km/h (4 Bft) 93,62 %
07.02.2016 00:28 10,1 C 10,0 C 8,3 C 77 % 0 lf 1000,1 hPa 0,0 l/m 0 min 0 min 0 W/m 23,0 km/h (4 Bft) 95,74 %
07.02.2016 00:30 10,1 C 10,0 C 8,3 C 77 % 0 lf 1000,1 hPa 0,0 l/m 0 min 0 min 0 W/m 23,0 km/h (4 Bft) 95,74 %
07.02.2016 00:32 10,1 C 10,0 C 8,3 C 77 % 0 lf 999,9 hPa 0,0 l/m 0 min 0 min 0 W/m 23,0 km/h (4 Bft) 91,49 %
07.02.2016 00:34 10,1 C 10,0 C 8,3 C 77 % 0 lf 1000,0 hPa 0,0 l/m 0 min 0 min 0 W/m 20,9 km/h (4 Bft) 95,74 %
07.02.2016 00:36 10,1 C 10,0 C 8,3 C 77 % 0 lf 999,9 hPa 0,0 l/m 0 min 0 min 0 W/m 23,0 km/h (4 Bft) 93,48 %
07.02.2016 00:38 10,1 C 10,0 C 8,3 C 77 % 0 lf 999,8 hPa 0,0 l/m 0 min 0 min 0 W/m 31,4 km/h (5 Bft) 89,36 %
07.02.2016 00:40 10,1 C 10,0 C 8,3 C 77 % 0 lf 999,8 hPa 0,0 l/m 0 min 0 min 0 W/m 20,9 km/h (4 Bft) 93,62 %
07.02.2016 00:42 10,1 C 10,0 C 8,3 C 77 % 0 lf 999,8 hPa 0,0 l/m 0 min 0 min 0 W/m 27,2 km/h (4 Bft) 93,62 %
07.02.2016 00:44 10,1 C 10,0 C 8,3 C 77 % 0 lf 999,8 hPa 0,0 l/m 0 min 0 min 0 W/m 20,9 km/h (4 Bft) 95,74 %
07.02.2016 00:46 10,1 C 10,0 C 8,3 C 77 % 0 lf 999,7 hPa 0,0 l/m 0 min 0 min 0 W/m 33,5 km/h (5 Bft) 95,74 %
07.02.2016 00:48 10,1 C 10,6 C 8,3 C 77 % 0 lf 999,7 hPa 0,0 l/m 0 min 0 min 0 W/m 33,5 km/h (5 Bft) 91,30 %
07.02.2016 00:50 10,1 C 10,6 C 8,3 C 77 % 0 lf 999,7 hPa 0,0 l/m 0 min 0 min 0 W/m 25,1 km/h (4 Bft) 95,74 %
07.02.2016 00:52 10,1 C 10,0 C 8,3 C 77 % 0 lf 999,6 hPa 0,0 l/m 0 min 0 min 0 W/m 27,2 km/h (4 Bft) 97,87 %
07.02.2016 00:54 10,1 C 10,0 C 8,3 C 77 % 0 lf 999,6 hPa 0,0 l/m 0 min 0 min 0 W/m 16,7 km/h (3 Bft) 93,62 %
07.02.2016 00:56 10,1 C 10,0 C 7,8 C 77 % 0 lf 999,5 hPa 0,0 l/m 0 min 0 min 0 W/m 20,9 km/h (4 Bft) 95,74 %
07.02.2016 00:58 10,1 C 10,0 C 7,8 C 77 % 0 lf 999,5 hPa 0,0 l/m 0 min 0 min 0 W/m 20,9 km/h (4 Bft) 95,74 %
07.02.2016 01:00 10,0 C 10,0 C 7,8 C 77 % 0 lf 999,5 hPa 0,0 l/m 0 min 0 min 0 W/m 20,9 km/h (4 Bft) 95,74 %
07.02.2016 01:02 10,0 C 9,4 C 7,8 C 77 % 0 lf 999,5 hPa 0,0 l/m 0 min 0 min 0 W/m 23,0 km/h (4 Bft) 95,74 %
07.02.2016 01:04 9,9 C 9,4 C 7,8 C 78 % 0 lf 999,5 hPa 0,0 l/m 0 min 0 min 0 W/m 20,9 km/h (4 Bft) 95,74 %
07.02.2016 01:06 9,9 C 9,4 C 7,8 C 77 % 0 lf 999,5 hPa 0,0 l/m 0 min 0 min 0 W/m 20,9 km/h (4 Bft) 95,74 %
07.02.2016 01:08 9,8 C 9,4 C 7,8 C 78 % 0 lf 999,5 hPa 0,0 l/m 0 min 0 min 0 W/m 20,9 km/h (4 Bft) 91,49 %
07.02.2016 01:10 9,8 C 9,4 C 7,8 C 78 % 0 lf 999,5 hPa 0,0 l/m 0 min 0 min 0 W/m 18,8 km/h (3 Bft) 95,65 %
07.02.2016 01:12 9,8 C 9,4 C 7,8 C 78 % 0 lf 999,5 hPa 0,0 l/m 0 min 0 min 0 W/m 23,0 km/h (4 Bft) 95,74 %
07.02.2016 01:14 9,7 C 9,4 C 7,8 C 78 % 0 lf 999,4 hPa 0,0 l/m 0 min 0 min 0 W/m 20,9 km/h (4 Bft) 93,62 %
07.02.2016 01:16 9,7 C 9,4 C 7,8 C 79 % 0 lf 999,4 hPa 0,0 l/m 0 min 0 min 0 W/m 23,0 km/h (4 Bft) 93,62 %
07.02.2016 01:18 9,6 C 9,4 C 7,8 C 78 % 0 lf 999,3 hPa 0,0 l/m 0 min 0 min 0 W/m 20,9 km/h (4 Bft) 97,87 %
07.02.2016 01:20 9,6 C 9,4 C 7,8 C 79 % 0 lf 999,4 hPa 0,0 l/m 0 min 0 min 0 W/m 23,0 km/h (4 Bft) 91,49 %
07.02.2016 01:22 9,5 C 9,4 C 7,8 C 79 % 0 lf 999,3 hPa 0,0 l/m 0 min 0 min 0 W/m 29,3 km/h (5 Bft) 95,65 %
07.02.2016 01:24 9,5 C 9,4 C 7,8 C 79 % 0 lf 999,3 hPa 0,0 l/m 0 min 0 min 0 W/m 16,7 km/h (3 Bft) 93,62 %
07.02.2016 01:26 9,5 C 9,4 C 7,8 C 79 % 0 lf 999,3 hPa 0,0 l/m 0 min 0 min 0 W/m 14,6 km/h (3 Bft) 91,49 %
07.02.2016 01:28 9,4 C 9,4 C 7,8 C 79 % 0 lf 999,4 hPa 0,0 l/m 0 min 0 min 0 W/m 18,8 km/h (3 Bft) 95,74 %
07.02.2016 01:30 9,4 C 9,4 C 7,8 C 80 % 0 lf 999,3 hPa 0,0 l/m 0 min 0 min 0 W/m 14,6 km/h (3 Bft) 95,74 %
07.02.2016 01:32 9,4 C 9,4 C 7,8 C 80 % 0 lf 999,3 hPa 0,0 l/m 0 min 0 min 0 W/m 16,7 km/h (3 Bft) 95,74 %
07.02.2016 01:34 9,4 C 9,4 C 7,8 C 80 % 0 lf 999,2 hPa 0,0 l/m 0 min 0 min 0 W/m 18,8 km/h (3 Bft) 100,00 %
07.02.2016 01:36 9,4 C 9,4 C 7,8 C 80 % 0 lf 999,2 hPa 0,0 l/m 0 min 0 min 0 W/m 18,8 km/h (3 Bft) 100,00 %
07.02.2016 01:38 9,4 C 9,4 C 7,8 C 80 % 0 lf 999,1 hPa 0,0 l/m 0 min 0 min 0 W/m 23,0 km/h (4 Bft) 100,00 %
07.02.2016 01:40 9,4 C 9,4 C 7,8 C 80 % 0 lf 999,0 hPa 0,0 l/m 0 min 0 min 0 W/m 18,8 km/h (3 Bft) 100,00 %
07.02.2016 01:42 9,4 C 9,4 C 7,8 C 80 % 0 lf 999,0 hPa 0,0 l/m 0 min 0 min 0 W/m 23,0 km/h (4 Bft) 91,49 %
07.02.2016 01:44 9,4 C 9,4 C 7,8 C 80 % 0 lf 999,0 hPa 0,0 l/m 0 min 0 min 0 W/m 18,8 km/h (3 Bft) 97,87 %
07.02.2016 01:46 9,4 C 9,4 C 7,8 C 80 % 0 lf 998,9 hPa 0,0 l/m 0 min 0 min 0 W/m 20,9 km/h (4 Bft) 97,83 %
07.02.2016 01:48 9,4 C 9,4 C 7,8 C 80 % 0 lf 999,0 hPa 0,0 l/m 0 min 0 min 0 W/m 23,0 km/h (4 Bft) 100,00 %
07.02.2016 01:50 9,4 C 9,4 C 7,8 C 80 % 0 lf 998,8 hPa 0,0 l/m 0 min 0 min 0 W/m 23,0 km/h (4 Bft) 95,74 %
07.02.2016 01:52 9,4 C 9,4 C 7,8 C 80 % 0 lf 998,8 hPa 0,0 l/m 0 min 0 min 0 W/m 25,1 km/h (4 Bft) 100,00 %
07.02.2016 01:54 9,4 C 9,4 C 7,8 C 80 % 0 lf 998,8 hPa 0,0 l/m 0 min 0 min 0 W/m 18,8 km/h (3 Bft) 97,87 %
07.02.2016 01:56 9,4 C 9,4 C 7,8 C 80 % 0 lf 998,8 hPa 0,0 l/m 0 min 0 min 0 W/m 18,8 km/h (3 Bft) 100,00 %
07.02.2016 01:58 9,4 C 9,4 C 7,8 C 80 % 0 lf 998,8 hPa 0,0 l/m 0 min 0 min 0 W/m 25,1 km/h (4 Bft) 100,00 %
07.02.2016 02:00 9,3 C 9,4 C 7,8 C 80 % 0 lf 998,8 hPa 0,0 l/m 0 min 0 min 0 W/m 23,0 km/h (4 Bft) 95,35 %
07.02.2016 02:02 9,4 C 9,4 C 7,8 C 80 % 0 lf 998,7 hPa 0,0 l/m 0 min 0 min 0 W/m 25,1 km/h (4 Bft) 98,00 %
07.02.2016 02:04 9,3 C 9,4 C 7,8 C 80 % 0 lf 998,6 hPa 0,0 l/m 0 min 0 min 0 W/m 29,3 km/h (5 Bft) 100,00 %
07.02.2016 02:06 9,3 C 9,4 C 7,8 C 80 % 0 lf 998,6 hPa 0,0 l/m 0 min 0 min 0 W/m 20,9 km/h (4 Bft) 100,00 %
07.02.2016 02:08 9,3 C 9,4 C 7,8 C 80 % 0 lf 998,6 hPa 0,0 l/m 0 min 0 min 0 W/m 23,0 km/h (4 Bft) 97,87 %
07.02.2016 02:10 9,3 C 9,4 C 7,8 C 80 % 0 lf 998,5 hPa 0,0 l/m 0 min 0 min 0 W/m 20,9 km/h (4 Bft) 97,83 %
07.02.2016 02:12 9,3 C 9,4 C 7,8 C 80 % 0 lf 998,5 hPa 0,0 l/m 0 min 0 min 0 W/m 20,9 km/h (4 Bft) 100,00 %
07.02.2016 02:14 9,3 C 9,4 C 7,8 C 81 % 0 lf 998,4 hPa 0,0 l/m 0 min 0 min 0 W/m 27,2 km/h (4 Bft) 100,00 %
07.02.2016 02:16 9,3 C 9,4 C 7,8 C 81 % 0 lf 998,4 hPa 0,0 l/m 0 min 0 min 0 W/m 18,8 km/h (3 Bft) 97,87 %
07.02.2016 02:18 9,3 C 9,4 C 7,8 C 81 % 0 lf 998,4 hPa 0,0 l/m 0 min 0 min 0 W/m 23,0 km/h (4 Bft) 100,00 %
07.02.2016 02:20 9,2 C 9,4 C 7,8 C 81 % 0 lf 998,3 hPa 0,0 l/m 0 min 0 min 0 W/m 25,1 km/h (4 Bft) 100,00 %
07.02.2016 02:22 9,2 C 9,4 C 7,2 C 81 % 0 lf 998,3 hPa 0,0 l/m 0 min 0 min 0 W/m 20,9 km/h (4 Bft) 100,00 %
07.02.2016 02:24 9,2 C 8,9 C 7,2 C 81 % 0 lf 998,3 hPa 0,0 l/m 0 min 0 min 0 W/m 25,1 km/h (4 Bft) 100,00 %
07.02.2016 02:26 9,2 C 9,4 C 7,2 C 81 % 0 lf 998,3 hPa 0,0 l/m 0 min 0 min 0 W/m 23,0 km/h (4 Bft) 97,87 %
07.02.2016 02:28 9,2 C 8,9 C 7,2 C 81 % 0 lf 998,2 hPa 0,0 l/m 0 min 0 min 0 W/m 16,7 km/h (3 Bft) 97,87 %
07.02.2016 02:30 9,1 C 8,9 C 7,2 C 81 % 0 lf 998,3 hPa 0,0 l/m 0 min 0 min 0 W/m 23,0 km/h (4 Bft) 100,00 %
07.02.2016 02:32 9,1 C 8,9 C 7,2 C 81 % 0 lf 998,2 hPa 0,0 l/m 0 min 0 min 0 W/m 25,1 km/h (4 Bft) 100,00 %
07.02.2016 02:34 9,1 C 8,9 C 7,2 C 81 % 0 lf 998,2 hPa 0,0 l/m 0 min 0 min 0 W/m 23,0 km/h (4 Bft) 97,87 %
07.02.2016 02:36 9,1 C 8,9 C 7,2 C 81 % 0 lf 998,2 hPa 0,0 l/m 0 min 0 min 0 W/m 18,8 km/h (3 Bft) 97,87 %
07.02.2016 02:38 9,1 C 8,9 C 7,2 C 81 % 0 lf 998,1 hPa 0,0 l/m 0 min 0 min 0 W/m 16,7 km/h (3 Bft) 100,00 %
07.02.2016 02:40 9,0 C 8,9 C 7,2 C 82 % 0 lf 998,2 hPa 0,0 l/m 0 min 0 min 0 W/m 18,8 km/h (3 Bft) 100,00 %
07.02.2016 02:42 9,0 C 8,9 C 7,2 C 82 % 0 lf 998,1 hPa 0,0 l/m 0 min 0 min 0 W/m 14,6 km/h (3 Bft) 93,62 %
07.02.2016 02:44 9,0 C 8,9 C 7,2 C 82 % 0 lf 998,1 hPa 0,0 l/m 0 min 0 min 0 W/m 16,7 km/h (3 Bft) 93,48 %
07.02.2016 02:46 8,9 C 8,9 C 7,2 C 82 % 0 lf 998,0 hPa 0,0 l/m 0 min 0 min 0 W/m 18,8 km/h (3 Bft) 100,00 %
07.02.2016 02:48 8,9 C 8,9 C 7,2 C 82 % 0 lf 997,9 hPa 0,0 l/m 0 min 0 min 0 W/m 16,7 km/h (3 Bft) 97,87 %
07.02.2016 02:50 8,9 C 9,4 C 7,2 C 82 % 0 lf 998,0 hPa 0,0 l/m 0 min 0 min 0 W/m 14,6 km/h (3 Bft) 87,23 %
07.02.2016 02:52 8,9 C 9,4 C 7,8 C 82 % 0 lf 998,0 hPa 0,0 l/m 0 min 0 min 0 W/m 16,7 km/h (3 Bft) 95,74 %
07.02.2016 02:54 8,9 C 10,0 C 7,8 C 82 % 0 lf 998,0 hPa 0,0 l/m 0 min 0 min 0 W/m 27,2 km/h (4 Bft) 95,74 %
07.02.2016 02:56 9,0 C 10,6 C 8,3 C 82 % 0 lf 998,0 hPa 0,0 l/m 0 min 0 min 0 W/m 20,9 km/h (4 Bft) 95,65 %
07.02.2016 02:58 9,1 C 10,6 C 8,3 C 82 % 0 lf 997,9 hPa 0,0 l/m 0 min 0 min 0 W/m 25,1 km/h (4 Bft) 93,62 %
07.02.2016 03:00 9,2 C 10,6 C 8,3 C 81 % 0 lf 998,0 hPa 0,0 l/m 0 min 0 min 0 W/m 25,1 km/h (4 Bft) 93,62 %
07.02.2016 03:02 9,3 C 10,6 C 8,9 C 81 % 0 lf 997,8 hPa 0,0 l/m 0 min 0 min 0 W/m 27,2 km/h (4 Bft) 93,62 %
07.02.2016 03:04 9,4 C 10,6 C 8,9 C 81 % 0 lf 997,9 hPa 0,0 l/m 0 min 0 min 0 W/m 25,1 km/h (4 Bft) 93,02 %
07.02.2016 03:06 9,6 C 11,1 C 8,9 C 80 % 0 lf 997,9 hPa 0,0 l/m 0 min 0 min 0 W/m 23,0 km/h (4 Bft) 91,49 %
07.02.2016 03:08 9,7 C 10,6 C 8,9 C 80 % 0 lf 997,8 hPa 0,0 l/m 0 min 0 min 0 W/m 25,1 km/h (4 Bft) 95,74 %
07.02.2016 03:10 9,8 C 11,1 C 8,9 C 79 % 0 lf 997,8 hPa 0,0 l/m 0 min 0 min 0 W/m 37,7 km/h (5 Bft) 91,30 %
07.02.2016 03:12 10,0 C 11,1 C 8,9 C 79 % 0 lf 997,8 hPa 0,0 l/m 0 min 0 min 0 W/m 20,9 km/h (4 Bft) 93,62 %
07.02.2016 03:14 10,1 C 11,1 C 8,9 C 78 % 0 lf 997,7 hPa 0,0 l/m 0 min 0 min 0 W/m 31,4 km/h (5 Bft) 93,62 %
07.02.2016 03:16 10,2 C 11,1 C 8,9 C 78 % 0 lf 997,7 hPa 0,0 l/m 0 min 0 min 0 W/m 23,0 km/h (4 Bft) 95,74 %
07.02.2016 03:18 10,2 C 11,1 C 8,9 C 78 % 0 lf 997,6 hPa 0,0 l/m 0 min 0 min 0 W/m 25,1 km/h (4 Bft) 93,62 %
07.02.2016 03:20 10,3 C 10,6 C 8,9 C 77 % 0 lf 997,6 hPa 0,0 l/m 0 min 0 min 0 W/m 20,9 km/h (4 Bft) 95,65 %
07.02.2016 03:22 10,3 C 11,1 C 8,9 C 77 % 0 lf 997,6 hPa 0,0 l/m 0 min 0 min 0 W/m 20,9 km/h (4 Bft) 93,62 %
07.02.2016 03:24 10,4 C 11,1 C 8,9 C 77 % 0 lf 997,6 hPa 0,0 l/m 0 min 0 min 0 W/m 31,4 km/h (5 Bft) 95,74 %
07.02.2016 03:26 10,4 C 10,6 C 8,9 C 77 % 0 lf 997,6 hPa 0,0 l/m 0 min 0 min 0 W/m 18,8 km/h (3 Bft) 95,74 %
07.02.2016 03:28 10,4 C 10,6 C 8,9 C 77 % 0 lf 997,6 hPa 0,0 l/m 0 min 0 min 0 W/m 25,1 km/h (4 Bft) 97,87 %
07.02.2016 03:30 10,5 C 11,1 C 8,9 C 76 % 0 lf 997,6 hPa 0,0 l/m 0 min 0 min 0 W/m 20,9 km/h (4 Bft) 95,74 %
07.02.2016 03:32 10,6 C 10,6 C 8,9 C 76 % 0 lf 997,6 hPa 0,0 l/m 0 min 0 min 0 W/m 23,0 km/h (4 Bft) 95,65 %
07.02.2016 03:34 10,6 C 10,6 C 8,9 C 76 % 0 lf 997,5 hPa 0,0 l/m 0 min 0 min 0 W/m 20,9 km/h (4 Bft) 89,36 %
07.02.2016 03:36 10,6 C 10,6 C 8,9 C 76 % 0 lf 997,5 hPa 0,0 l/m 0 min 0 min 0 W/m 20,9 km/h (4 Bft) 95,74 %
07.02.2016 03:38 10,6 C 10,6 C 8,9 C 76 % 0 lf 997,5 hPa 0,0 l/m 0 min 0 min 0 W/m 23,0 km/h (4 Bft) 95,74 %
07.02.2016 03:40 10,6 C 10,6 C 8,9 C 76 % 0 lf 997,4 hPa 0,0 l/m 0 min 0 min 0 W/m 29,3 km/h (5 Bft) 93,62 %
07.02.2016 03:42 10,6 C 10,6 C 8,9 C 76 % 0 lf 997,2 hPa 0,0 l/m 0 min 0 min 0 W/m 27,2 km/h (4 Bft) 97,87 %
07.02.2016 03:44 10,6 C 10,6 C 8,9 C 76 % 0 lf 997,3 hPa 0,0 l/m 0 min 0 min 0 W/m 31,4 km/h (5 Bft) 95,65 %
07.02.2016 03:46 10,6 C 10,6 C 8,9 C 76 % 0 lf 997,3 hPa 0,0 l/m 0 min 0 min 0 W/m 18,8 km/h (3 Bft) 95,74 %
07.02.2016 03:48 10,6 C 10,6 C 8,9 C 76 % 0 lf 997,3 hPa 0,0 l/m 0 min 0 min 0 W/m 27,2 km/h (4 Bft) 95,74 %
07.02.2016 03:50 10,6 C 10,6 C 8,9 C 76 % 0 lf 997,2 hPa 0,0 l/m 0 min 0 min 0 W/m 14,6 km/h (3 Bft) 93,62 %
07.02.2016 03:52 10,6 C 10,6 C 8,9 C 76 % 0 lf 997,2 hPa 0,0 l/m 0 min 0 min 0 W/m 20,9 km/h (4 Bft) 95,74 %
07.02.2016 03:54 10,6 C 10,6 C 8,9 C 76 % 0 lf 997,2 hPa 0,0 l/m 0 min 0 min 0 W/m 25,1 km/h (4 Bft) 93,62 %
07.02.2016 03:56 10,5 C 10,6 C 8,9 C 76 % 0 lf 997,1 hPa 0,0 l/m 0 min 0 min 0 W/m 12,6 km/h (3 Bft) 95,65 %
07.02.2016 03:58 10,5 C 10,6 C 8,9 C 76 % 0 lf 997,1 hPa 0,0 l/m 0 min 0 min 0 W/m 20,9 km/h (4 Bft) 93,62 %
07.02.2016 04:00 10,4 C 10,0 C 8,3 C 76 % 0 lf 997,1 hPa 0,0 l/m 0 min 0 min 0 W/m 20,9 km/h (4 Bft) 94,00 %
07.02.2016 04:05 10,4 C 10,6 C 8,3 C 77 % 0 lf 997,0 hPa 0,0 l/m 0 min 0 min 0 W/m 23,0 km/h (4 Bft) 95,71 %
07.02.2016 04:06 10,3 C 10,6 C 8,9 C 77 % 0 lf 997,0 hPa 0,0 l/m 0 min 0 min 0 W/m 20,9 km/h (4 Bft) 91,30 %
07.02.2016 04:08 10,3 C 10,6 C 8,9 C 77 % 0 lf 996,9 hPa 0,0 l/m 0 min 0 min 0 W/m 18,8 km/h (3 Bft) 95,74 %
07.02.2016 04:10 10,3 C 10,6 C 8,9 C 77 % 0 lf 996,9 hPa 0,0 l/m 0 min 0 min 0 W/m 29,3 km/h (5 Bft) 93,62 %
07.02.2016 04:12 10,3 C 10,6 C 8,9 C 77 % 0 lf 996,9 hPa 0,0 l/m 0 min 0 min 0 W/m 29,3 km/h (5 Bft) 93,62 %
07.02.2016 04:14 10,3 C 10,6 C 8,9 C 77 % 0 lf 996,8 hPa 0,0 l/m 0 min 0 min 0 W/m 20,9 km/h (4 Bft) 93,62 %
07.02.2016 04:16 10,3 C 10,6 C 8,3 C 77 % 0 lf 996,7 hPa 0,0 l/m 0 min 0 min 0 W/m 23,0 km/h (4 Bft) 93,62 %
07.02.2016 04:18 10,3 C 10,6 C 8,3 C 77 % 0 lf 996,8 hPa 0,0 l/m 0 min 0 min 0 W/m 18,8 km/h (3 Bft) 91,30 %
07.02.2016 04:20 10,2 C 10,6 C 8,3 C 77 % 0 lf 996,8 hPa 0,0 l/m 0 min 0 min 0 W/m 29,3 km/h (5 Bft) 91,49 %
07.02.2016 04:22 10,3 C 10,6 C 8,3 C 77 % 0 lf 996,7 hPa 0,0 l/m 0 min 0 min 0 W/m 20,9 km/h (4 Bft) 91,49 %
07.02.2016 04:24 10,2 C 10,6 C 8,3 C 77 % 0 lf 996,7 hPa 0,0 l/m 0 min 0 min 0 W/m 25,1 km/h (4 Bft) 93,62 %
07.02.2016 04:26 10,2 C 10,6 C 8,3 C 77 % 0 lf 996,7 hPa 0,0 l/m 0 min 0 min 0 W/m 27,2 km/h (4 Bft) 97,87 %
07.02.2016 04:28 10,3 C 10,6 C 8,3 C 77 % 0 lf 996,7 hPa 0,0 l/m 0 min 0 min 0 W/m 27,2 km/h (4 Bft) 89,36 %
07.02.2016 04:30 10,3 C 10,6 C 8,9 C 77 % 0 lf 996,6 hPa 0,0 l/m 0 min 0 min 0 W/m 20,9 km/h (4 Bft) 97,83 %
07.02.2016 04:32 10,3 C 10,6 C 8,9 C 77 % 0 lf 996,7 hPa 0,0 l/m 0 min 0 min 0 W/m 33,5 km/h (5 Bft) 93,62 %
07.02.2016 04:34 10,3 C 10,6 C 8,9 C 77 % 0 lf 996,6 hPa 0,0 l/m 0 min 0 min 0 W/m 29,3 km/h (5 Bft) 97,87 %
07.02.2016 04:36 10,3 C 10,6 C 8,9 C 77 % 0 lf 996,7 hPa 0,0 l/m 0 min 0 min 0 W/m 23,0 km/h (4 Bft) 95,74 %
07.02.2016 04:38 10,3 C 10,6 C 8,9 C 77 % 0 lf 996,5 hPa 0,0 l/m 0 min 0 min 0 W/m 16,7 km/h (3 Bft) 95,74 %
07.02.2016 04:40 10,3 C 10,6 C 8,3 C 77 % 0 lf 996,5 hPa 0,0 l/m 0 min 0 min 0 W/m 25,1 km/h (4 Bft) 100,00 %
07.02.2016 04:42 10,3 C 10,6 C 8,3 C 77 % 0 lf 996,6 hPa 0,0 l/m 0 min 0 min 0 W/m 23,0 km/h (4 Bft) 93,48 %
07.02.2016 04:44 10,3 C 10,6 C 8,9 C 77 % 0 lf 996,6 hPa 0,0 l/m 0 min 0 min 0 W/m 27,2 km/h (4 Bft) 100,00 %
07.02.2016 04:46 10,3 C 10,6 C 8,9 C 77 % 0 lf 996,6 hPa 0,0 l/m 0 min 0 min 0 W/m 20,9 km/h (4 Bft) 95,74 %
07.02.2016 04:48 10,3 C 10,6 C 8,9 C 77 % 0 lf 996,5 hPa 0,0 l/m 0 min 0 min 0 W/m 35,6 km/h (5 Bft) 97,87 %
07.02.2016 04:50 10,3 C 10,6 C 8,9 C 77 % 0 lf 996,4 hPa 0,0 l/m 0 min 0 min 0 W/m 33,5 km/h (5 Bft) 93,62 %
07.02.2016 04:52 10,4 C 11,1 C 8,9 C 76 % 0 lf 996,5 hPa 0,0 l/m 0 min 0 min 0 W/m 25,1 km/h (4 Bft) 97,87 %
07.02.2016 04:54 10,4 C 10,6 C 8,9 C 76 % 0 lf 996,5 hPa 0,0 l/m 0 min 0 min 0 W/m 23,0 km/h (4 Bft) 97,83 %
07.02.2016 04:56 10,4 C 11,1 C 8,9 C 76 % 0 lf 996,5 hPa 0,0 l/m 0 min 0 min 0 W/m 29,3 km/h (5 Bft) 97,87 %
07.02.2016 04:58 10,5 C 10,6 C 8,9 C 76 % 0 lf 996,4 hPa 0,0 l/m 0 min 0 min 0 W/m 18,8 km/h (3 Bft) 97,87 %
07.02.2016 05:00 10,5 C 10,6 C 8,9 C 76 % 0 lf 996,4 hPa 0,0 l/m 0 min 0 min 0 W/m 18,8 km/h (3 Bft) 97,87 %
07.02.2016 05:02 10,5 C 10,6 C 8,9 C 76 % 0 lf 996,2 hPa 0,0 l/m 0 min 0 min 0 W/m 25,1 km/h (4 Bft) 95,74 %
07.02.2016 05:04 10,6 C 10,6 C 8,9 C 76 % 0 lf 996,3 hPa 0,0 l/m 0 min 0 min 0 W/m 25,1 km/h (4 Bft) 97,83 %
07.02.2016 05:06 10,6 C 10,6 C 8,9 C 76 % 0 lf 996,2 hPa 0,0 l/m 0 min 0 min 0 W/m 37,7 km/h (5 Bft) 95,74 %
07.02.2016 05:08 10,6 C 10,6 C 8,9 C 76 % 0 lf 996,2 hPa 0,0 l/m 0 min 0 min 0 W/m 27,2 km/h (4 Bft) 95,74 %
07.02.2016 05:10 10,6 C 10,6 C 8,9 C 76 % 0 lf 996,2 hPa 0,0 l/m 0 min 0 min 0 W/m 20,9 km/h (4 Bft) 97,87 %
07.02.2016 05:12 10,6 C 10,6 C 8,9 C 76 % 0 lf 996,3 hPa 0,0 l/m 0 min 0 min 0 W/m 33,5 km/h (5 Bft) 95,74 %
07.02.2016 05:14 10,6 C 10,6 C 8,9 C 76 % 0 lf 996,3 hPa 0,0 l/m 0 min 0 min 0 W/m 31,4 km/h (5 Bft) 97,87 %
07.02.2016 05:16 10,6 C 10,6 C 8,9 C 76 % 0 lf 996,2 hPa 0,0 l/m 0 min 0 min 0 W/m 29,3 km/h (5 Bft) 97,83 %
07.02.2016 05:18 10,6 C 10,6 C 8,9 C 76 % 0 lf 996,2 hPa 0,0 l/m 0 min 0 min 0 W/m 31,4 km/h (5 Bft) 97,87 %
07.02.2016 05:20 10,6 C 10,6 C 8,9 C 76 % 0 lf 996,2 hPa 0,0 l/m 0 min 0 min 0 W/m 27,2 km/h (4 Bft) 91,49 %
07.02.2016 05:22 10,6 C 10,6 C 8,9 C 76 % 0 lf 996,2 hPa 0,0 l/m 0 min 0 min 0 W/m 27,2 km/h (4 Bft) 97,87 %
07.02.2016 05:24 10,6 C 11,1 C 8,9 C 76 % 0 lf 996,3 hPa 0,0 l/m 0 min 0 min 0 W/m 35,6 km/h (5 Bft) 97,87 %
07.02.2016 05:26 10,6 C 11,1 C 8,9 C 75 % 0 lf 996,3 hPa 0,0 l/m 0 min 0 min 0 W/m 33,5 km/h (5 Bft) 100,00 %
07.02.2016 05:28 10,6 C 11,1 C 9,4 C 75 % 0 lf 996,3 hPa 0,0 l/m 0 min 0 min 0 W/m 48,1 km/h (6 Bft) 97,83 %
07.02.2016 05:30 10,7 C 11,1 C 9,4 C 75 % 0 lf 996,3 hPa 0,0 l/m 0 min 0 min 0 W/m 33,5 km/h (5 Bft) 97,87 %
07.02.2016 05:32 10,7 C 11,1 C 9,4 C 75 % 0 lf 996,3 hPa 0,0 l/m 0 min 0 min 0 W/m 33,5 km/h (5 Bft) 97,87 %
07.02.2016 05:34 10,7 C 11,1 C 9,4 C 75 % 0 lf 996,3 hPa 0,0 l/m 0 min 0 min 0 W/m 25,1 km/h (4 Bft) 93,62 %
07.02.2016 05:36 10,7 C 11,1 C 9,4 C 75 % 0 lf 996,3 hPa 0,0 l/m 0 min 0 min 0 W/m 31,4 km/h (5 Bft) 95,74 %
07.02.2016 05:38 10,7 C 11,1 C 9,4 C 75 % 0 lf 996,3 hPa 0,0 l/m 0 min 0 min 0 W/m 29,3 km/h (5 Bft) 97,87 %
07.02.2016 05:40 10,8 C 11,1 C 9,4 C 75 % 0 lf 996,4 hPa 0,0 l/m 0 min 0 min 0 W/m 31,4 km/h (5 Bft) 97,83 %
07.02.2016 05:42 10,8 C 11,1 C 9,4 C 75 % 0 lf 996,3 hPa 0,0 l/m 0 min 0 min 0 W/m 33,5 km/h (5 Bft) 97,87 %
07.02.2016 05:44 10,8 C 11,1 C 9,4 C 75 % 0 lf 996,3 hPa 0,0 l/m 0 min 0 min 0 W/m 33,5 km/h (5 Bft) 95,74 %
07.02.2016 05:46 10,8 C 11,1 C 9,4 C 74 % 0 lf 996,2 hPa 0,0 l/m 0 min 0 min 0 W/m 39,7 km/h (6 Bft) 97,87 %
07.02.2016 05:48 10,8 C 11,1 C 9,4 C 74 % 0 lf 996,2 hPa 0,0 l/m 0 min 0 min 0 W/m 39,7 km/h (6 Bft) 93,62 %
07.02.2016 05:50 10,9 C 11,1 C 9,4 C 74 % 0 lf 996,2 hPa 0,0 l/m 0 min 0 min 0 W/m 35,6 km/h (5 Bft) 97,87 %
07.02.2016 05:52 10,9 C 11,1 C 9,4 C 74 % 0 lf 996,2 hPa 0,0 l/m 0 min 0 min 0 W/m 39,7 km/h (6 Bft) 97,83 %
07.02.2016 05:54 10,9 C 11,1 C 9,4 C 73 % 0 lf 996,1 hPa 0,0 l/m 0 min 0 min 0 W/m 48,1 km/h (6 Bft) 95,74 %
07.02.2016 05:56 10,9 C 11,1 C 9,4 C 73 % 0 lf 996,0 hPa 0,0 l/m 0 min 0 min 0 W/m 35,6 km/h (5 Bft) 95,74 %
07.02.2016 05:58 11,0 C 11,1 C 9,4 C 73 % 0 lf 996,1 hPa 0,0 l/m 0 min 0 min 0 W/m 27,2 km/h (4 Bft) 97,87 %
07.02.2016 06:00 11,0 C 11,1 C 9,4 C 73 % 0 lf 996,1 hPa 0,0 l/m 0 min 0 min 0 W/m 25,1 km/h (4 Bft) 97,87 %
07.02.2016 06:02 11,0 C 11,1 C 9,4 C 73 % 0 lf 996,1 hPa 0,0 l/m 0 min 0 min 0 W/m 29,3 km/h (5 Bft) 97,83 %
07.02.2016 06:04 11,0 C 11,1 C 9,4 C 73 % 0 lf 996,1 hPa 0,0 l/m 0 min 0 min 0 W/m 41,8 km/h (6 Bft) 93,75 %
07.02.2016 06:06 11,0 C 11,1 C 9,4 C 73 % 0 lf 996,2 hPa 0,0 l/m 0 min 0 min 0 W/m 37,7 km/h (5 Bft) 97,87 %
07.02.2016 06:08 11,0 C 11,1 C 9,4 C 73 % 0 lf 996,1 hPa 0,0 l/m 0 min 0 min 0 W/m 31,4 km/h (5 Bft) 95,74 %
07.02.2016 06:10 11,0 C 11,1 C 9,4 C 73 % 0 lf 996,0 hPa 0,0 l/m 0 min 0 min 0 W/m 39,7 km/h (6 Bft) 97,87 %
07.02.2016 06:12 11,0 C 11,1 C 9,4 C 73 % 0 lf 996,1 hPa 0,0 l/m 0 min 0 min 0 W/m 39,7 km/h (6 Bft) 97,87 %
07.02.2016 06:14 11,0 C 11,1 C 9,4 C 73 % 0 lf 996,0 hPa 0,0 l/m 0 min 0 min 0 W/m 25,1 km/h (4 Bft) 97,83 %
07.02.2016 06:16 11,0 C 11,1 C 9,4 C 73 % 0 lf 996,0 hPa 0,0 l/m 0 min 0 min 0 W/m 23,0 km/h (4 Bft) 97,87 %
07.02.2016 06:18 11,0 C 11,1 C 9,4 C 73 % 0 lf 996,1 hPa 0,0 l/m 0 min 0 min 0 W/m 31,4 km/h (5 Bft) 95,74 %
07.02.2016 06:20 11,0 C 11,1 C 9,4 C 73 % 0 lf 996,0 hPa 0,0 l/m 0 min 0 min 0 W/m 39,7 km/h (6 Bft) 95,74 %
07.02.2016 06:22 11,0 C 11,1 C 9,4 C 73 % 0 lf 996,1 hPa 0,0 l/m 0 min 0 min 0 W/m 35,6 km/h (5 Bft) 97,87 %
07.02.2016 06:24 11,0 C 11,1 C 9,4 C 73 % 0 lf 996,1 hPa 0,0 l/m 0 min 0 min 0 W/m 20,9 km/h (4 Bft) 100,00 %
07.02.2016 06:26 11,0 C 11,1 C 9,4 C 73 % 0 lf 996,0 hPa 0,0 l/m 0 min 0 min 0 W/m 25,1 km/h (4 Bft) 100,00 %
07.02.2016 06:28 11,0 C 11,1 C 9,4 C 73 % 0 lf 996,1 hPa 0,0 l/m 0 min 0 min 0 W/m 31,4 km/h (5 Bft) 97,87 %
07.02.2016 06:30 11,0 C 11,1 C 9,4 C 73 % 0 lf 996,0 hPa 0,0 l/m 0 min 0 min 0 W/m 29,3 km/h (5 Bft) 97,87 %
07.02.2016 06:32 11,0 C 11,1 C 9,4 C 73 % 0 lf 996,1 hPa 0,0 l/m 0 min 0 min 0 W/m 35,6 km/h (5 Bft) 97,87 %
07.02.2016 06:34 11,0 C 11,1 C 9,4 C 74 % 0 lf 996,0 hPa 0,0 l/m 0 min 0 min 0 W/m 39,7 km/h (6 Bft) 97,87 %
07.02.2016 06:36 11,0 C 11,7 C 9,4 C 74 % 0 lf 996,1 hPa 0,0 l/m 0 min 0 min 0 W/m 56,5 km/h (7 Bft) 93,62 %
07.02.2016 06:38 11,1 C 11,7 C 9,4 C 74 % 0 lf 996,2 hPa 0,0 l/m 0 min 0 min 0 W/m 43,9 km/h (6 Bft) 97,83 %
07.02.2016 06:40 11,1 C 11,7 C 9,4 C 74 % 0 lf 996,2 hPa 0,0 l/m 0 min 0 min 0 W/m 31,4 km/h (5 Bft) 95,74 %
07.02.2016 06:42 11,2 C 11,7 C 9,4 C 74 % 0 lf 996,1 hPa 0,0 l/m 0 min 0 min 0 W/m 35,6 km/h (5 Bft) 95,74 %
07.02.2016 06:44 11,2 C 11,7 C 10,0 C 74 % 0 lf 996,2 hPa 0,0 l/m 0 min 0 min 0 W/m 39,7 km/h (6 Bft) 93,62 %
07.02.2016 06:46 11,2 C 11,7 C 10,0 C 74 % 0 lf 996,2 hPa 0,0 l/m 0 min 0 min 0 W/m 37,7 km/h (5 Bft) 93,62 %
07.02.2016 06:48 11,3 C 11,7 C 10,0 C 74 % 0 lf 996,1 hPa 0,0 l/m 0 min 0 min 0 W/m 29,3 km/h (5 Bft) 93,62 %
07.02.2016 06:50 11,3 C 11,7 C 10,0 C 73 % 0 lf 996,0 hPa 0,0 l/m 0 min 0 min 0 W/m 33,5 km/h (5 Bft) 95,65 %
07.02.2016 06:52 11,3 C 11,7 C 10,0 C 74 % 0 lf 996,0 hPa 0,0 l/m 0 min 0 min 0 W/m 27,2 km/h (4 Bft) 97,87 %
07.02.2016 06:54 11,3 C 11,7 C 10,0 C 73 % 0 lf 996,0 hPa 0,0 l/m 0 min 0 min 0 W/m 18,8 km/h (3 Bft) 95,74 %
07.02.2016 06:56 11,3 C 11,7 C 9,4 C 74 % 0 lf 996,0 hPa 0,0 l/m 0 min 0 min 0 W/m 18,8 km/h (3 Bft) 95,74 %
07.02.2016 06:58 11,3 C 11,7 C 9,4 C 74 % 0 lf 996,0 hPa 0,0 l/m 0 min 0 min 0 W/m 31,4 km/h (5 Bft) 95,74 %
07.02.2016 07:00 11,3 C 11,7 C 9,4 C 74 % 0 lf 996,0 hPa 0,0 l/m 0 min 0 min 0 W/m 23,0 km/h (4 Bft) 93,48 %
07.02.2016 07:02 11,3 C 11,1 C 9,4 C 74 % 0 lf 995,9 hPa 0,0 l/m 0 min 0 min 0 W/m 18,8 km/h (3 Bft) 89,36 %
07.02.2016 07:04 11,3 C 11,1 C 9,4 C 74 % 0 lf 996,0 hPa 0,0 l/m 0 min 0 min 0 W/m 23,0 km/h (4 Bft) 95,74 %
07.02.2016 07:06 11,3 C 11,1 C 9,4 C 74 % 0 lf 996,0 hPa 0,0 l/m 0 min 0 min 0 W/m 25,1 km/h (4 Bft) 95,74 %
07.02.2016 07:08 11,3 C 11,1 C 9,4 C 74 % 0 lf 996,0 hPa 0,0 l/m 0 min 0 min 0 W/m 27,2 km/h (4 Bft) 95,74 %
07.02.2016 07:10 11,3 C 11,1 C 9,4 C 74 % 0 lf 996,1 hPa 0,0 l/m 0 min 0 min 0 W/m 20,9 km/h (4 Bft) 93,62 %
07.02.2016 07:12 11,3 C 11,7 C 9,4 C 75 % 0 lf 996,0 hPa 0,0 l/m 0 min 0 min 0 W/m 33,5 km/h (5 Bft) 95,65 %
07.02.2016 07:14 11,2 C 11,7 C 9,4 C 74 % 0 lf 996,0 hPa 0,0 l/m 0 min 0 min 0 W/m 25,1 km/h (4 Bft) 97,87 %
07.02.2016 07:16 11,2 C 11,1 C 9,4 C 75 % 0 lf 996,0 hPa 0,0 l/m 0 min 0 min 0 W/m 18,8 km/h (3 Bft) 97,87 %
07.02.2016 07:18 11,2 C 11,1 C 9,4 C 75 % 0 lf 996,0 hPa 0,0 l/m 0 min 2 min 0 W/m 29,3 km/h (5 Bft) 95,74 %
07.02.2016 07:20 11,2 C 11,1 C 9,4 C 75 % 0 lf 996,0 hPa 0,0 l/m 0 min 0 min 0 W/m 27,2 km/h (4 Bft) 100,00 %
07.02.2016 07:22 11,2 C 11,7 C 9,4 C 75 % 0 lf 996,0 hPa 0,0 l/m 0 min 0 min 0 W/m 23,0 km/h (4 Bft) 95,74 %
07.02.2016 07:24 11,2 C 11,1 C 9,4 C 75 % 0 lf 996,0 hPa 0,0 l/m 0 min 0 min 0 W/m 23,0 km/h (4 Bft) 93,62 %
07.02.2016 07:26 11,2 C 11,7 C 9,4 C 75 % 0 lf 996,2 hPa 0,0 l/m 0 min 0 min 0 W/m 25,1 km/h (4 Bft) 97,83 %
07.02.2016 07:27 11,2 C 11,1 C 9,4 C 75 % 0 lf 996,2 hPa 0,0 l/m 0 min 0 min 0 W/m 25,1 km/h (4 Bft) 100,00 %
07.02.2016 07:28 11,2 C 11,1 C 9,4 C 75 % 0 lf 996,2 hPa 0,0 l/m 0 min 0 min 0 W/m 25,1 km/h (4 Bft) 100,00 %
07.02.2016 07:29 11,2 C 11,1 C 9,4 C 75 % 0 lf 996,2 hPa 0,0 l/m 0 min 0 min 0 W/m 33,5 km/h (5 Bft) 100,00 %
07.02.2016 07:32 11,2 C 11,1 C 9,4 C 75 % 1 lf 996,2 hPa 0,0 l/m 0 min 2 min 0 W/m 31,4 km/h (5 Bft) 95,92 %
07.02.2016 07:34 11,2 C 11,1 C 9,4 C 76 % 0 lf 996,2 hPa 0,0 l/m 0 min 0 min 0 W/m 35,6 km/h (5 Bft) 97,92 %
07.02.2016 07:36 11,2 C 11,7 C 9,4 C 76 % 0 lf 996,4 hPa 0,0 l/m 0 min 0 min 0 W/m 39,7 km/h (6 Bft) 97,14 %
07.02.2016 07:38 11,2 C 11,1 C 9,4 C 76 % 0 lf 996,3 hPa 0,0 l/m 0 min 0 min 0 W/m 20,9 km/h (4 Bft) 98,15 %
07.02.2016 07:40 11,2 C 11,1 C 9,4 C 76 % 1 lf 996,3 hPa 0,0 l/m 0 min 2 min 0 W/m 20,9 km/h (4 Bft) 98,00 %
07.02.2016 07:42 11,2 C 11,1 C 9,4 C 76 % 1 lf 996,4 hPa 0,0 l/m 0 min 2 min 0 W/m 23,0 km/h (4 Bft) 93,75 %
07.02.2016 07:44 11,2 C 11,1 C 9,4 C 76 % 0 lf 996,3 hPa 0,0 l/m 0 min 2 min 0 W/m 16,7 km/h (3 Bft) 91,43 %
07.02.2016 07:46 11,2 C 11,1 C 9,4 C 76 % 0 lf 996,4 hPa 0,0 l/m 0 min 2 min 0 W/m 39,7 km/h (6 Bft) 97,87 %
07.02.2016 07:48 11,2 C 11,1 C 9,4 C 77 % 1 lf 996,4 hPa 0,0 l/m 0 min 2 min 0 W/m 33,5 km/h (5 Bft) 98,18 %
07.02.2016 07:50 11,2 C 11,1 C 8,9 C 77 % 1 lf 996,4 hPa 0,0 l/m 0 min 2 min 0 W/m 31,4 km/h (5 Bft) 97,96 %
07.02.2016 07:52 11,2 C 10,6 C 8,9 C 77 % 0 lf 996,4 hPa 0,0 l/m 0 min 2 min 0 W/m 18,8 km/h (3 Bft) 95,74 %
07.02.2016 07:54 11,2 C 10,6 C 8,9 C 77 % 0 lf 996,5 hPa 0,0 l/m 0 min 2 min 0 W/m 27,2 km/h (4 Bft) 95,83 %
07.02.2016 07:56 11,2 C 10,6 C 8,9 C 78 % 1 lf 996,5 hPa 0,0 l/m 0 min 2 min 0 W/m 29,3 km/h (5 Bft) 94,29 %
07.02.2016 07:58 11,1 C 10,6 C 8,9 C 78 % 2 lf 996,5 hPa 0,0 l/m 0 min 2 min 0 W/m 29,3 km/h (5 Bft) 97,87 %
07.02.2016 08:00 11,1 C 10,6 C 8,9 C 78 % 2 lf 996,5 hPa 0,0 l/m 0 min 2 min 0 W/m 37,7 km/h (5 Bft) 98,18 %
07.02.2016 08:02 11,1 C 10,6 C 8,9 C 78 % 0 lf 996,5 hPa 0,0 l/m 0 min 0 min 0 W/m 33,5 km/h (5 Bft) 97,96 %
07.02.2016 08:04 11,0 C 10,6 C 8,9 C 78 % 0 lf 996,5 hPa 0,0 l/m 0 min 2 min 0 W/m 35,6 km/h (5 Bft) 97,92 %
07.02.2016 08:06 11,0 C 11,1 C 8,9 C 79 % 0 lf 996,6 hPa 0,0 l/m 0 min 0 min 0 W/m 33,5 km/h (5 Bft) 94,29 %
07.02.2016 08:08 11,0 C 11,1 C 8,9 C 79 % 0 lf 996,6 hPa 0,0 l/m 0 min 0 min 0 W/m 25,1 km/h (4 Bft) 94,55 %
07.02.2016 08:10 10,9 C 11,1 C 8,9 C 79 % 0 lf 996,5 hPa 0,0 l/m 0 min 0 min 3 W/m 20,9 km/h (4 Bft) 94,00 %
07.02.2016 08:12 10,9 C 11,1 C 8,9 C 79 % 0 lf 996,6 hPa 0,0 l/m 0 min 0 min 5 W/m 39,7 km/h (6 Bft) 97,92 %
07.02.2016 08:14 10,9 C 11,1 C 8,9 C 79 % 0 lf 996,6 hPa 0,0 l/m 0 min 0 min 5 W/m 31,4 km/h (5 Bft) 97,14 %
07.02.2016 08:16 10,9 C 11,1 C 8,9 C 79 % 0 lf 996,7 hPa 0,0 l/m 0 min 0 min 5 W/m 37,7 km/h (5 Bft) 96,30 %
07.02.2016 08:18 10,9 C 11,1 C 9,4 C 79 % 0 lf 996,6 hPa 0,0 l/m 0 min 0 min 6 W/m 27,2 km/h (4 Bft) 98,00 %
07.02.2016 08:20 10,9 C 11,1 C 9,4 C 79 % 0 lf 996,7 hPa 0,0 l/m 0 min 0 min 7 W/m 33,5 km/h (5 Bft) 97,92 %
07.02.2016 08:22 10,9 C 11,1 C 9,4 C 79 % 0 lf 996,8 hPa 0,0 l/m 0 min 0 min 7 W/m 37,7 km/h (5 Bft) 97,87 %
07.02.2016 08:24 10,9 C 11,1 C 9,4 C 79 % 0 lf 997,0 hPa 0,0 l/m 0 min 0 min 9 W/m 48,1 km/h (6 Bft) 91,43 %
07.02.2016 08:26 10,9 C 11,1 C 9,4 C 79 % 0 lf 997,0 hPa 0,0 l/m 0 min 0 min 10 W/m 54,4 km/h (7 Bft) 94,44 %
07.02.2016 08:28 10,9 C 11,1 C 9,4 C 79 % 0 lf 997,1 hPa 0,0 l/m 0 min 2 min 9 W/m 43,9 km/h (6 Bft) 94,00 %
07.02.2016 08:30 10,9 C 11,1 C 9,4 C 79 % 0 lf 997,2 hPa 0,0 l/m 0 min 0 min 10 W/m 48,1 km/h (6 Bft) 95,83 %
07.02.2016 08:32 10,9 C 11,1 C 8,9 C 79 % 2 lf 997,2 hPa 0,0 l/m 0 min 0 min 8 W/m 29,3 km/h (5 Bft) 94,29 %
07.02.2016 08:34 10,9 C 10,6 C 8,9 C 80 % 1 lf 997,6 hPa 0,0 l/m 0 min 0 min 7 W/m 52,3 km/h (7 Bft) 94,55 %
07.02.2016 08:36 10,8 C 10,6 C 8,9 C 80 % 15 lf 997,7 hPa 0,0 l/m 0 min 2 min 7 W/m 39,7 km/h (6 Bft) 95,92 %
07.02.2016 08:38 10,7 C 8,9 C 7,8 C 81 % 15 lf 997,6 hPa 0,0 l/m 0 min 2 min 7 W/m 43,9 km/h (6 Bft) 93,75 %
07.02.2016 08:40 10,4 C 8,3 C 7,2 C 81 % 15 lf 997,7 hPa 0,0 l/m 0 min 2 min 8 W/m 27,2 km/h (4 Bft) 95,74 %
07.02.2016 08:42 10,2 C 7,8 C 6,7 C 82 % 15 lf 997,8 hPa 0,2 l/m 0 min 2 min 10 W/m 39,7 km/h (6 Bft) 93,62 %
07.02.2016 08:44 10,0 C 7,8 C 6,7 C 83 % 15 lf 997,8 hPa 0,0 l/m 0 min 2 min 14 W/m 37,7 km/h (5 Bft) 91,49 %
07.02.2016 08:46 9,8 C 7,8 C 6,7 C 84 % 15 lf 997,9 hPa 0,0 l/m 0 min 2 min 22 W/m 29,3 km/h (5 Bft) 93,62 %
07.02.2016 08:48 9,7 C 7,8 C 6,7 C 85 % 15 lf 997,9 hPa 0,0 l/m 0 min 2 min 26 W/m 25,1 km/h (4 Bft) 95,74 %
07.02.2016 08:50 9,5 C 7,8 C 6,7 C 85 % 15 lf 998,0 hPa 0,0 l/m 0 min 2 min 28 W/m 29,3 km/h (5 Bft) 93,48 %
07.02.2016 08:52 9,4 C 7,8 C 6,7 C 86 % 15 lf 997,9 hPa 0,0 l/m 0 min 2 min 30 W/m 27,2 km/h (4 Bft) 95,74 %
07.02.2016 08:54 9,3 C 7,8 C 6,7 C 86 % 15 lf 998,0 hPa 0,0 l/m 0 min 0 min 32 W/m 20,9 km/h (4 Bft) 93,62 %
07.02.2016 08:56 9,3 C 7,8 C 6,7 C 87 % 15 lf 998,0 hPa 0,0 l/m 0 min 0 min 33 W/m 29,3 km/h (5 Bft) 94,29 %
07.02.2016 08:58 9,2 C 7,8 C 6,7 C 87 % 15 lf 998,1 hPa 0,0 l/m 0 min 0 min 34 W/m 18,8 km/h (3 Bft) 95,74 %
07.02.2016 09:00 9,1 C 7,8 C 6,7 C 88 % 15 lf 998,1 hPa 0,0 l/m 0 min 0 min 37 W/m 23,0 km/h (4 Bft) 92,59 %
07.02.2016 09:02 9,1 C 8,3 C 6,7 C 88 % 15 lf 998,1 hPa 0,0 l/m 0 min 0 min 39 W/m 18,8 km/h (3 Bft) 94,00 %
07.02.2016 09:04 9,1 C 8,3 C 6,7 C 88 % 15 lf 998,2 hPa 0,0 l/m 0 min 0 min 40 W/m 16,7 km/h (3 Bft) 95,83 %
07.02.2016 09:06 9,0 C 8,3 C 6,7 C 89 % 15 lf 998,1 hPa 0,0 l/m 0 min 0 min 42 W/m 23,0 km/h (4 Bft) 91,43 %
07.02.2016 09:08 8,9 C 8,3 C 6,7 C 89 % 15 lf 998,1 hPa 0,0 l/m 0 min 0 min 40 W/m 14,6 km/h (3 Bft) 94,55 %
07.02.2016 09:10 8,9 C 8,3 C 6,7 C 89 % 15 lf 998,2 hPa 0,0 l/m 0 min 0 min 38 W/m 12,6 km/h (3 Bft) 97,96 %
07.02.2016 09:12 8,9 C 8,3 C 6,7 C 89 % 15 lf 998,3 hPa 0,0 l/m 0 min 0 min 34 W/m 16,7 km/h (3 Bft) 97,87 %
07.02.2016 09:14 8,9 C 8,3 C 6,7 C 89 % 15 lf 998,3 hPa 0,0 l/m 0 min 0 min 31 W/m 33,5 km/h (5 Bft) 95,83 %
07.02.2016 09:16 8,9 C 8,9 C 6,7 C 90 % 15 lf 998,3 hPa 0,0 l/m 0 min 0 min 32 W/m 33,5 km/h (5 Bft) 97,87 %
07.02.2016 09:18 8,8 C 8,9 C 6,7 C 90 % 15 lf 998,3 hPa 0,0 l/m 0 min 0 min 28 W/m 23,0 km/h (4 Bft) 97,14 %
07.02.2016 09:20 8,8 C 8,9 C 6,7 C 90 % 15 lf 998,3 hPa 0,0 l/m 0 min 0 min 26 W/m 18,8 km/h (3 Bft) 100,00 %
07.02.2016 09:22 8,8 C 8,9 C 6,7 C 90 % 15 lf 998,2 hPa 0,0 l/m 0 min 0 min 19 W/m 12,6 km/h (3 Bft) 98,18 %
07.02.2016 09:24 8,8 C 8,9 C 6,7 C 90 % 15 lf 998,3 hPa 0,0 l/m 0 min 0 min 18 W/m 14,6 km/h (3 Bft) 97,83 %
07.02.2016 09:26 8,8 C 8,9 C 6,7 C 90 % 15 lf 998,3 hPa 0,0 l/m 0 min 0 min 19 W/m 18,8 km/h (3 Bft) 98,00 %
07.02.2016 09:28 8,8 C 8,3 C 6,7 C 90 % 15 lf 998,4 hPa 0,0 l/m 0 min 0 min 14 W/m 29,3 km/h (5 Bft) 93,75 %
07.02.2016 09:30 8,8 C 8,3 C 6,7 C 90 % 15 lf 998,6 hPa 0,0 l/m 0 min 2 min 12 W/m 46,0 km/h (6 Bft) 97,87 %
07.02.2016 09:32 8,7 C 7,8 C 6,7 C 90 % 15 lf 998,7 hPa 0,2 l/m 0 min 2 min 17 W/m 27,2 km/h (4 Bft) 95,74 %
07.02.2016 09:34 8,7 C 7,8 C 6,7 C 90 % 15 lf 998,7 hPa 0,0 l/m 0 min 2 min 16 W/m 25,1 km/h (4 Bft) 87,23 %
07.02.2016 09:36 8,7 C 7,2 C 6,1 C 90 % 15 lf 998,7 hPa 0,0 l/m 0 min 2 min 14 W/m 27,2 km/h (4 Bft) 100,00 %
07.02.2016 09:38 8,6 C 7,2 C 6,1 C 90 % 15 lf 998,8 hPa 0,0 l/m 0 min 2 min 12 W/m 25,1 km/h (4 Bft) 94,44 %
07.02.2016 09:40 8,5 C 7,2 C 6,1 C 90 % 15 lf 998,8 hPa 0,2 l/m 0 min 2 min 14 W/m 29,3 km/h (5 Bft) 96,00 %
07.02.2016 09:42 8,4 C 7,2 C 6,1 C 90 % 15 lf 998,8 hPa 0,0 l/m 0 min 2 min 17 W/m 25,1 km/h (4 Bft) 97,92 %
07.02.2016 09:44 8,3 C 7,2 C 6,1 C 90 % 15 lf 998,8 hPa 0,0 l/m 0 min 2 min 24 W/m 23,0 km/h (4 Bft) 97,14 %
07.02.2016 09:46 8,3 C 7,2 C 6,1 C 90 % 15 lf 998,8 hPa 0,0 l/m 0 min 2 min 32 W/m 27,2 km/h (4 Bft) 96,30 %
07.02.2016 09:48 8,2 C 7,2 C 6,1 C 90 % 15 lf 998,8 hPa 0,0 l/m 0 min 2 min 36 W/m 25,1 km/h (4 Bft) 96,00 %
07.02.2016 09:50 8,2 C 7,2 C 6,1 C 91 % 15 lf 998,8 hPa 0,0 l/m 0 min 2 min 42 W/m 23,0 km/h (4 Bft) 95,83 %
07.02.2016 09:52 8,1 C 7,2 C 6,1 C 91 % 15 lf 999,0 hPa 0,0 l/m 0 min 2 min 48 W/m 23,0 km/h (4 Bft) 94,29 %
07.02.2016 09:54 8,1 C 7,2 C 6,1 C 91 % 15 lf 998,9 hPa 0,0 l/m 0 min 2 min 53 W/m 27,2 km/h (4 Bft) 96,36 %
07.02.2016 09:56 8,0 C 7,2 C 6,1 C 91 % 15 lf 998,9 hPa 0,2 l/m 0 min 2 min 57 W/m 20,9 km/h (4 Bft) 96,00 %
07.02.2016 09:58 8,0 C 7,2 C 6,1 C 91 % 15 lf 999,0 hPa 0,0 l/m 0 min 2 min 62 W/m 23,0 km/h (4 Bft) 95,83 %
07.02.2016 10:00 7,9 C 7,2 C 6,1 C 91 % 15 lf 998,9 hPa 0,0 l/m 0 min 2 min 61 W/m 23,0 km/h (4 Bft) 95,65 %
07.02.2016 10:02 7,9 C 7,2 C 6,1 C 92 % 15 lf 998,9 hPa 0,0 l/m 0 min 2 min 58 W/m 16,7 km/h (3 Bft) 97,87 %
07.02.2016 10:04 7,9 C 7,2 C 6,1 C 92 % 15 lf 999,0 hPa 0,0 l/m 0 min 2 min 55 W/m 20,9 km/h (4 Bft) 97,14 %
07.02.2016 10:06 7,9 C 7,2 C 6,1 C 92 % 15 lf 998,9 hPa 0,0 l/m 0 min 2 min 53 W/m 18,8 km/h (3 Bft) 92,73 %
07.02.2016 10:08 7,9 C 7,2 C 6,1 C 92 % 15 lf 999,0 hPa 0,0 l/m 0 min 2 min 54 W/m 18,8 km/h (3 Bft) 97,96 %
07.02.2016 10:10 7,8 C 7,2 C 6,1 C 92 % 15 lf 999,0 hPa 0,0 l/m 0 min 2 min 56 W/m 18,8 km/h (3 Bft) 93,62 %
07.02.2016 10:12 7,8 C 7,2 C 6,1 C 92 % 15 lf 998,9 hPa 0,0 l/m 0 min 2 min 65 W/m 18,8 km/h (3 Bft) 95,83 %
07.02.2016 10:14 7,8 C 7,8 C 6,1 C 92 % 15 lf 998,9 hPa 0,0 l/m 0 min 2 min 72 W/m 14,6 km/h (3 Bft) 100,00 %
07.02.2016 10:16 7,8 C 7,8 C 6,1 C 93 % 15 lf 998,9 hPa 0,0 l/m 0 min 2 min 79 W/m 14,6 km/h (3 Bft) 100,00 %
07.02.2016 10:18 7,8 C 7,8 C 6,1 C 93 % 15 lf 999,0 hPa 0,0 l/m 0 min 0 min 91 W/m 14,6 km/h (3 Bft) 95,74 %
07.02.2016 10:20 7,8 C 7,8 C 6,1 C 93 % 15 lf 999,0 hPa 0,0 l/m 0 min 0 min 102 W/m 14,6 km/h (3 Bft) 98,18 %
07.02.2016 10:22 7,8 C 7,8 C 6,7 C 93 % 15 lf 998,9 hPa 0,0 l/m 0 min 0 min 113 W/m 12,6 km/h (3 Bft) 97,83 %
07.02.2016 10:24 7,8 C 8,3 C 6,7 C 93 % 15 lf 999,0 hPa 0,0 l/m 0 min 0 min 111 W/m 18,8 km/h (3 Bft) 100,00 %
07.02.2016 10:26 7,8 C 8,3 C 6,7 C 93 % 15 lf 999,0 hPa 0,0 l/m 0 min 0 min 102 W/m 12,6 km/h (3 Bft) 97,92 %
07.02.2016 10:28 7,8 C 7,8 C 6,7 C 93 % 15 lf 999,1 hPa 0,0 l/m 0 min 0 min 94 W/m 14,6 km/h (3 Bft) 97,14 %
07.02.2016 10:30 7,9 C 7,8 C 6,7 C 93 % 15 lf 999,1 hPa 0,0 l/m 0 min 0 min 91 W/m 16,7 km/h (3 Bft) 93,62 %
07.02.2016 10:32 7,9 C 7,8 C 6,7 C 93 % 15 lf 999,1 hPa 0,0 l/m 0 min 0 min 90 W/m 16,7 km/h (3 Bft) 98,18 %
07.02.2016 10:34 7,9 C 7,8 C 6,7 C 93 % 15 lf 999,2 hPa 0,0 l/m 0 min 0 min 91 W/m 16,7 km/h (3 Bft) 97,96 %
07.02.2016 10:36 7,9 C 7,8 C 6,7 C 93 % 15 lf 999,2 hPa 0,0 l/m 0 min 0 min 90 W/m 25,1 km/h (4 Bft) 97,92 %
07.02.2016 10:38 7,9 C 7,8 C 6,7 C 93 % 15 lf 999,3 hPa 0,0 l/m 0 min 0 min 90 W/m 14,6 km/h (3 Bft) 97,14 %
07.02.2016 10:40 7,9 C 7,8 C 6,7 C 93 % 15 lf 999,2 hPa 0,0 l/m 0 min 0 min 96 W/m 14,6 km/h (3 Bft) 98,18 %
07.02.2016 10:42 7,9 C 7,8 C 6,7 C 93 % 15 lf 999,2 hPa 0,0 l/m 0 min 0 min 109 W/m 20,9 km/h (4 Bft) 98,00 %
07.02.2016 10:44 7,9 C 8,3 C 6,7 C 93 % 15 lf 999,1 hPa 0,0 l/m 0 min 0 min 118 W/m 20,9 km/h (4 Bft) 93,75 %
07.02.2016 10:46 7,9 C 8,3 C 6,7 C 93 % 15 lf 999,1 hPa 0,0 l/m 0 min 0 min 124 W/m 20,9 km/h (4 Bft) 91,43 %
07.02.2016 10:48 7,9 C 8,3 C 6,7 C 93 % 15 lf 999,1 hPa 0,0 l/m 0 min 0 min 123 W/m 18,8 km/h (3 Bft) 94,55 %
07.02.2016 10:50 8,0 C 8,3 C 6,7 C 93 % 15 lf 999,2 hPa 0,0 l/m 0 min 0 min 122 W/m 16,7 km/h (3 Bft) 98,00 %
07.02.2016 10:52 8,0 C 8,3 C 6,7 C 93 % 15 lf 999,3 hPa 0,0 l/m 0 min 0 min 124 W/m 12,6 km/h (3 Bft) 93,62 %
07.02.2016 10:54 8,1 C 8,3 C 6,7 C 93 % 15 lf 999,4 hPa 0,0 l/m 0 min 0 min 123 W/m 20,9 km/h (4 Bft) 97,87 %
07.02.2016 10:56 8,1 C 8,3 C 6,7 C 93 % 15 lf 999,4 hPa 0,0 l/m 0 min 0 min 120 W/m 16,7 km/h (3 Bft) 97,87 %
07.02.2016 10:58 8,1 C 8,3 C 6,7 C 93 % 15 lf 999,5 hPa 0,0 l/m 0 min 0 min 114 W/m 16,7 km/h (3 Bft) 97,87 %
07.02.2016 11:00 8,1 C 8,3 C 6,7 C 93 % 15 lf 999,5 hPa 0,0 l/m 0 min 0 min 105 W/m 23,0 km/h (4 Bft) 100,00 %
07.02.2016 11:02 8,2 C 8,3 C 6,7 C 93 % 15 lf 999,4 hPa 0,0 l/m 0 min 0 min 117 W/m 25,1 km/h (4 Bft) 97,83 %
07.02.2016 11:04 8,2 C 8,9 C 6,7 C 93 % 14 lf 999,4 hPa 0,0 l/m 0 min 0 min 141 W/m 16,7 km/h (3 Bft) 100,00 %
07.02.2016 11:06 8,2 C 8,9 C 7,2 C 93 % 14 lf 999,4 hPa 0,0 l/m 0 min 0 min 163 W/m 25,1 km/h (4 Bft) 95,74 %
07.02.2016 11:08 8,2 C 9,4 C 7,2 C 93 % 13 lf 999,4 hPa 0,0 l/m 2 min 0 min 196 W/m 25,1 km/h (4 Bft) 94,34 %
07.02.2016 11:10 8,2 C 9,4 C 7,2 C 93 % 13 lf 999,5 hPa 0,0 l/m 2 min 0 min 204 W/m 27,2 km/h (4 Bft) 97,87 %
07.02.2016 11:12 8,3 C 10,0 C 7,2 C 93 % 12 lf 999,4 hPa 0,0 l/m 2 min 0 min 248 W/m 16,7 km/h (3 Bft) 96,00 %
07.02.2016 11:14 8,3 C 10,6 C 7,8 C 93 % 12 lf 999,5 hPa 0,0 l/m 2 min 0 min 260 W/m 16,7 km/h (3 Bft) 97,96 %
07.02.2016 11:16 8,4 C 10,6 C 7,8 C 93 % 10 lf 999,5 hPa 0,0 l/m 2 min 0 min 257 W/m 14,6 km/h (3 Bft) 93,62 %
07.02.2016 11:18 8,5 C 10,6 C 7,8 C 93 % 10 lf 999,5 hPa 0,0 l/m 2 min 0 min 193 W/m 14,6 km/h (3 Bft) 97,87 %
07.02.2016 11:20 8,6 C 10,0 C 7,8 C 93 % 9 lf 999,6 hPa 0,0 l/m 2 min 0 min 200 W/m 14,6 km/h (3 Bft) 97,14 %
07.02.2016 11:22 8,6 C 10,0 C 7,8 C 93 % 9 lf 999,6 hPa 0,0 l/m 2 min 0 min 226 W/m 25,1 km/h (4 Bft) 98,11 %
07.02.2016 11:24 8,7 C 10,0 C 7,8 C 92 % 8 lf 999,6 hPa 0,0 l/m 2 min 0 min 200 W/m 25,1 km/h (4 Bft) 96,00 %
07.02.2016 11:26 8,7 C 10,0 C 7,8 C 92 % 7 lf 999,6 hPa 0,0 l/m 2 min 0 min 208 W/m 25,1 km/h (4 Bft) 95,92 %
07.02.2016 11:28 8,7 C 11,1 C 7,8 C 92 % 6 lf 999,7 hPa 0,0 l/m 2 min 0 min 268 W/m 14,6 km/h (3 Bft) 91,43 %
07.02.2016 11:30 8,8 C 11,1 C 7,8 C 92 % 4 lf 999,6 hPa 0,0 l/m 2 min 0 min 260 W/m 16,7 km/h (3 Bft) 96,30 %
07.02.2016 11:32 8,9 C 10,6 C 7,8 C 92 % 4 lf 999,7 hPa 0,0 l/m 2 min 0 min 218 W/m 20,9 km/h (4 Bft) 95,92 %
07.02.2016 11:34 8,9 C 10,6 C 7,8 C 92 % 3 lf 999,6 hPa 0,0 l/m 2 min 0 min 214 W/m 29,3 km/h (5 Bft) 91,84 %
07.02.2016 11:36 8,9 C 10,0 C 7,8 C 92 % 2 lf 999,7 hPa 0,0 l/m 2 min 0 min 201 W/m 27,2 km/h (4 Bft) 100,00 %
07.02.2016 11:38 9,0 C 10,0 C 7,8 C 91 % 2 lf 999,8 hPa 0,0 l/m 2 min 0 min 185 W/m 25,1 km/h (4 Bft) 92,45 %
07.02.2016 11:40 9,0 C 10,0 C 7,8 C 91 % 1 lf 999,8 hPa 0,0 l/m 0 min 0 min 170 W/m 29,3 km/h (5 Bft) 94,00 %
07.02.2016 11:42 9,0 C 9,4 C 7,2 C 91 % 0 lf 999,9 hPa 0,0 l/m 0 min 0 min 161 W/m 23,0 km/h (4 Bft) 93,88 %
07.02.2016 11:44 9,1 C 9,4 C 7,2 C 90 % 0 lf 999,8 hPa 0,0 l/m 0 min 0 min 153 W/m 20,9 km/h (4 Bft) 97,14 %
07.02.2016 11:46 9,1 C 9,4 C 7,2 C 90 % 0 lf 999,8 hPa 0,0 l/m 0 min 0 min 187 W/m 29,3 km/h (5 Bft) 90,57 %
07.02.2016 11:48 9,1 C 9,4 C 7,2 C 90 % 0 lf 999,9 hPa 0,0 l/m 2 min 0 min 198 W/m 31,4 km/h (5 Bft) 94,00 %
07.02.2016 11:50 9,1 C 9,4 C 7,2 C 90 % 0 lf 1000,0 hPa 0,0 l/m 2 min 0 min 194 W/m 25,1 km/h (4 Bft) 95,92 %
07.02.2016 11:52 9,1 C 9,4 C 7,2 C 89 % 0 lf 1000,0 hPa 0,0 l/m 0 min 0 min 186 W/m 23,0 km/h (4 Bft) 95,74 %
07.02.2016 11:54 9,1 C 10,0 C 7,2 C 89 % 0 lf 999,9 hPa 0,0 l/m 0 min 0 min 190 W/m 27,2 km/h (4 Bft) 97,14 %
07.02.2016 11:56 9,1 C 10,0 C 7,2 C 89 % 0 lf 999,9 hPa 0,0 l/m 0 min 0 min 190 W/m 25,1 km/h (4 Bft) 96,23 %
07.02.2016 11:58 9,1 C 10,6 C 7,2 C 88 % 0 lf 999,9 hPa 0,0 l/m 0 min 0 min 186 W/m 23,0 km/h (4 Bft) 98,00 %
07.02.2016 12:00 9,1 C 10,6 C 7,2 C 88 % 0 lf 1000,0 hPa 0,0 l/m 0 min 0 min 190 W/m 27,2 km/h (4 Bft) 95,92 %
07.02.2016 12:02 9,1 C 10,6 C 7,2 C 88 % 0 lf 999,9 hPa 0,0 l/m 0 min 0 min 192 W/m 33,5 km/h (5 Bft) 97,87 %
07.02.2016 12:04 9,1 C 10,6 C 7,2 C 87 % 0 lf 999,9 hPa 0,0 l/m 2 min 0 min 194 W/m 23,0 km/h (4 Bft) 95,12 %
07.02.2016 12:06 9,1 C 10,6 C 7,2 C 87 % 0 lf 999,9 hPa 0,0 l/m 2 min 0 min 196 W/m 23,0 km/h (4 Bft) 96,00 %
07.02.2016 12:08 9,2 C 11,1 C 7,2 C 87 % 0 lf 999,9 hPa 0,0 l/m 2 min 0 min 196 W/m 23,0 km/h (4 Bft) 95,92 %
07.02.2016 12:10 9,2 C 10,6 C 7,2 C 87 % 0 lf 999,9 hPa 0,0 l/m 0 min 0 min 184 W/m 29,3 km/h (5 Bft) 94,44 %
07.02.2016 12:12 9,2 C 10,6 C 7,2 C 86 % 0 lf 1000,1 hPa 0,0 l/m 0 min 0 min 185 W/m 39,7 km/h (6 Bft) 98,28 %
07.02.2016 12:14 9,2 C 10,6 C 7,2 C 86 % 0 lf 1000,1 hPa 0,0 l/m 2 min 0 min 197 W/m 29,3 km/h (5 Bft) 97,14 %
07.02.2016 12:16 9,2 C 10,6 C 7,2 C 85 % 0 lf 1000,2 hPa 0,0 l/m 2 min 0 min 201 W/m 35,6 km/h (5 Bft) 95,74 %
07.02.2016 12:18 9,1 C 10,6 C 7,2 C 84 % 0 lf 1000,3 hPa 0,0 l/m 2 min 0 min 197 W/m 41,8 km/h (6 Bft) 96,23 %
07.02.2016 12:20 9,1 C 10,6 C 7,2 C 84 % 0 lf 1000,2 hPa 0,0 l/m 2 min 0 min 201 W/m 37,7 km/h (5 Bft) 97,87 %
07.02.2016 12:22 9,1 C 10,6 C 7,2 C 84 % 0 lf 1000,3 hPa 0,0 l/m 2 min 0 min 212 W/m 29,3 km/h (5 Bft) 92,00 %
07.02.2016 12:24 9,1 C 10,6 C 7,2 C 83 % 0 lf 1000,3 hPa 0,0 l/m 2 min 0 min 214 W/m 29,3 km/h (5 Bft) 93,88 %
07.02.2016 12:26 9,1 C 11,1 C 7,2 C 83 % 0 lf 1000,3 hPa 0,0 l/m 2 min 0 min 202 W/m 25,1 km/h (4 Bft) 100,00 %
07.02.2016 12:28 9,1 C 10,6 C 7,2 C 83 % 0 lf 1000,3 hPa 0,0 l/m 0 min 0 min 195 W/m 35,6 km/h (5 Bft) 95,74 %
07.02.2016 12:30 9,1 C 10,6 C 7,2 C 82 % 0 lf 1000,3 hPa 0,0 l/m 2 min 0 min 205 W/m 29,3 km/h (5 Bft) 92,45 %
07.02.2016 12:32 9,1 C 10,6 C 7,2 C 82 % 0 lf 1000,3 hPa 0,0 l/m 2 min 0 min 206 W/m 23,0 km/h (4 Bft) 95,74 %
07.02.2016 12:34 9,2 C 10,6 C 7,2 C 82 % 0 lf 1000,2 hPa 0,0 l/m 2 min 0 min 210 W/m 29,3 km/h (5 Bft) 95,74 %
07.02.2016 12:36 9,2 C 10,6 C 7,2 C 82 % 0 lf 1000,3 hPa 0,0 l/m 2 min 0 min 216 W/m 18,8 km/h (3 Bft) 94,00 %
07.02.2016 12:38 9,2 C 10,6 C 7,2 C 82 % 0 lf 1000,2 hPa 0,0 l/m 2 min 0 min 220 W/m 29,3 km/h (5 Bft) 95,92 %
07.02.2016 12:40 9,2 C 11,1 C 7,2 C 82 % 0 lf 1000,2 hPa 0,0 l/m 2 min 0 min 239 W/m 18,8 km/h (3 Bft) 91,43 %
07.02.2016 12:42 9,2 C 11,7 C 7,2 C 82 % 0 lf 1000,3 hPa 0,0 l/m 2 min 0 min 240 W/m 27,2 km/h (4 Bft) 94,34 %
07.02.2016 12:44 9,2 C 10,6 C 7,2 C 81 % 0 lf 1000,3 hPa 0,0 l/m 2 min 0 min 216 W/m 39,7 km/h (6 Bft) 94,00 %
07.02.2016 12:46 9,2 C 10,6 C 7,2 C 81 % 0 lf 1000,4 hPa 0,0 l/m 2 min 0 min 207 W/m 33,5 km/h (5 Bft) 91,49 %
07.02.2016 12:48 9,2 C 10,6 C 7,2 C 80 % 0 lf 1000,3 hPa 0,0 l/m 2 min 0 min 225 W/m 33,5 km/h (5 Bft) 95,74 %
07.02.2016 12:50 9,2 C 11,1 C 7,2 C 80 % 0 lf 1000,3 hPa 0,0 l/m 2 min 0 min 229 W/m 27,2 km/h (4 Bft) 95,92 %
07.02.2016 12:52 9,2 C 11,1 C 7,2 C 80 % 0 lf 1000,4 hPa 0,0 l/m 2 min 0 min 231 W/m 35,6 km/h (5 Bft) 95,74 %
07.02.2016 12:54 9,2 C 11,1 C 7,2 C 81 % 0 lf 1000,4 hPa 0,0 l/m 2 min 0 min 238 W/m 37,7 km/h (5 Bft) 94,29 %
07.02.2016 12:56 9,2 C 11,1 C 7,2 C 81 % 0 lf 1000,4 hPa 0,0 l/m 2 min 0 min 208 W/m 31,4 km/h (5 Bft) 96,30 %
07.02.2016 12:58 9,3 C 10,6 C 7,2 C 81 % 0 lf 1000,4 hPa 0,0 l/m 0 min 0 min 183 W/m 20,9 km/h (4 Bft) 93,62 %
07.02.2016 13:00 9,3 C 10,6 C 7,2 C 80 % 0 lf 1000,3 hPa 0,0 l/m 0 min 0 min 186 W/m 25,1 km/h (4 Bft) 97,87 %
07.02.2016 13:02 9,3 C 10,6 C 7,2 C 80 % 0 lf 1000,3 hPa 0,0 l/m 0 min 0 min 189 W/m 23,0 km/h (4 Bft) 93,62 %
07.02.2016 13:04 9,3 C 10,6 C 7,8 C 80 % 0 lf 1000,4 hPa 0,0 l/m 0 min 0 min 177 W/m 29,3 km/h (5 Bft) 93,62 %
07.02.2016 13:06 9,3 C 10,0 C 7,8 C 80 % 0 lf 1000,4 hPa 0,0 l/m 0 min 0 min 161 W/m 27,2 km/h (4 Bft) 95,65 %
07.02.2016 13:08 9,3 C 10,0 C 7,8 C 80 % 0 lf 1000,5 hPa 0,0 l/m 0 min 0 min 152 W/m 33,5 km/h (5 Bft) 97,87 %
07.02.2016 13:10 9,3 C 10,0 C 7,8 C 80 % 0 lf 1000,5 hPa 0,0 l/m 0 min 0 min 149 W/m 29,3 km/h (5 Bft) 97,87 %
07.02.2016 13:12 9,3 C 10,0 C 7,8 C 79 % 0 lf 1000,5 hPa 0,0 l/m 0 min 0 min 145 W/m 25,1 km/h (4 Bft) 95,74 %
07.02.2016 13:14 9,3 C 10,0 C 7,8 C 79 % 0 lf 1000,4 hPa 0,0 l/m 0 min 0 min 138 W/m 27,2 km/h (4 Bft) 95,74 %
07.02.2016 13:16 9,2 C 10,0 C 7,8 C 80 % 0 lf 1000,5 hPa 0,0 l/m 0 min 0 min 134 W/m 18,8 km/h (3 Bft) 91,30 %
07.02.2016 13:18 9,2 C 10,0 C 7,8 C 80 % 0 lf 1000,5 hPa 0,0 l/m 0 min 0 min 133 W/m 25,1 km/h (4 Bft) 95,74 %
07.02.2016 13:20 9,2 C 10,0 C 7,2 C 80 % 0 lf 1000,6 hPa 0,0 l/m 0 min 0 min 124 W/m 31,4 km/h (5 Bft) 100,00 %
07.02.2016 13:22 9,2 C 10,0 C 7,8 C 80 % 0 lf 1000,5 hPa 0,0 l/m 0 min 0 min 121 W/m 25,1 km/h (4 Bft) 94,87 %
07.02.2016 13:24 9,2 C 10,0 C 7,8 C 80 % 0 lf 1000,6 hPa 0,0 l/m 0 min 0 min 125 W/m 33,5 km/h (5 Bft) 100,00 %
07.02.2016 13:26 9,2 C 10,0 C 7,8 C 80 % 0 lf 1000,6 hPa 0,0 l/m 0 min 0 min 138 W/m 23,0 km/h (4 Bft) 98,28 %
07.02.2016 13:28 9,2 C 10,0 C 7,8 C 80 % 0 lf 1000,5 hPa 0,0 l/m 0 min 0 min 160 W/m 16,7 km/h (3 Bft) 97,83 %
07.02.2016 13:30 9,2 C 10,6 C 7,8 C 80 % 0 lf 1000,5 hPa 0,0 l/m 0 min 0 min 175 W/m 29,3 km/h (5 Bft) 95,74 %
07.02.2016 13:32 9,2 C 10,6 C 7,8 C 80 % 0 lf 1000,5 hPa 0,0 l/m 0 min 0 min 186 W/m 23,0 km/h (4 Bft) 95,74 %
07.02.2016 13:34 9,2 C 10,6 C 7,8 C 80 % 0 lf 1000,5 hPa 0,0 l/m 0 min 0 min 174 W/m 29,3 km/h (5 Bft) 97,87 %
07.02.2016 13:36 9,3 C 10,6 C 7,8 C 80 % 0 lf 1000,6 hPa 0,0 l/m 0 min 0 min 153 W/m 16,7 km/h (3 Bft) 100,00 %
07.02.2016 13:38 9,3 C 10,6 C 7,8 C 80 % 0 lf 1000,6 hPa 0,0 l/m 0 min 0 min 146 W/m 23,0 km/h (4 Bft) 93,62 %
07.02.2016 13:40 9,3 C 10,0 C 7,8 C 79 % 0 lf 1000,6 hPa 0,0 l/m 0 min 0 min 150 W/m 23,0 km/h (4 Bft) 95,65 %
07.02.2016 13:42 9,3 C 10,0 C 7,8 C 79 % 0 lf 1000,7 hPa 0,0 l/m 0 min 0 min 148 W/m 18,8 km/h (3 Bft) 100,00 %
07.02.2016 13:44 9,3 C 10,0 C 7,8 C 79 % 0 lf 1000,7 hPa 0,0 l/m 0 min 0 min 148 W/m 27,2 km/h (4 Bft) 100,00 %
07.02.2016 13:46 9,3 C 10,0 C 7,8 C 79 % 0 lf 1000,6 hPa 0,0 l/m 0 min 0 min 165 W/m 29,3 km/h (5 Bft) 100,00 %
07.02.2016 13:48 9,3 C 10,6 C 7,8 C 79 % 0 lf 1000,9 hPa 0,0 l/m 0 min 0 min 175 W/m 29,3 km/h (5 Bft) 91,49 %
07.02.2016 13:50 9,3 C 10,6 C 7,8 C 79 % 0 lf 1000,6 hPa 0,0 l/m 2 min 0 min 204 W/m 25,1 km/h (4 Bft) 95,74 %
07.02.2016 13:52 9,3 C 11,1 C 8,3 C 79 % 0 lf 1000,5 hPa 0,0 l/m 2 min 0 min 202 W/m 27,2 km/h (4 Bft) 97,83 %
07.02.2016 13:54 9,4 C 10,6 C 8,3 C 78 % 0 lf 1000,6 hPa 0,0 l/m 2 min 0 min 187 W/m 29,3 km/h (5 Bft) 95,74 %
07.02.2016 13:56 9,4 C 10,6 C 7,8 C 77 % 0 lf 1000,6 hPa 0,0 l/m 0 min 0 min 177 W/m 29,3 km/h (5 Bft) 97,87 %
07.02.2016 13:58 9,4 C 10,6 C 7,8 C 77 % 0 lf 1000,7 hPa 0,0 l/m 0 min 0 min 166 W/m 33,5 km/h (5 Bft) 97,87 %
07.02.2016 14:00 9,4 C 10,6 C 8,3 C 77 % 0 lf 1000,8 hPa 0,0 l/m 0 min 0 min 157 W/m 18,8 km/h (3 Bft) 93,62 %
07.02.2016 14:02 9,4 C 10,6 C 8,3 C 77 % 0 lf 1000,8 hPa 0,0 l/m 0 min 0 min 155 W/m 20,9 km/h (4 Bft) 93,62 %
07.02.2016 14:04 9,4 C 10,6 C 8,3 C 77 % 0 lf 1000,9 hPa 0,0 l/m 0 min 0 min 150 W/m 25,1 km/h (4 Bft) 97,83 %
07.02.2016 14:06 9,4 C 10,0 C 8,3 C 76 % 0 lf 1000,8 hPa 0,0 l/m 0 min 0 min 135 W/m 25,1 km/h (4 Bft) 97,87 %
07.02.2016 14:08 9,4 C 10,0 C 8,3 C 76 % 0 lf 1000,6 hPa 0,0 l/m 0 min 0 min 125 W/m 29,3 km/h (5 Bft) 95,74 %
07.02.2016 14:10 9,4 C 10,0 C 8,3 C 75 % 0 lf 1000,6 hPa 0,0 l/m 0 min 0 min 120 W/m 35,6 km/h (5 Bft) 97,87 %
07.02.2016 14:12 9,4 C 10,0 C 8,3 C 75 % 0 lf 1000,7 hPa 0,0 l/m 0 min 0 min 108 W/m 29,3 km/h (5 Bft) 97,87 %
07.02.2016 14:14 9,4 C 10,0 C 8,3 C 75 % 0 lf 1000,6 hPa 0,0 l/m 0 min 0 min 107 W/m 14,6 km/h (3 Bft) 93,48 %
07.02.2016 14:16 9,4 C 10,0 C 8,3 C 76 % 0 lf 1000,7 hPa 0,0 l/m 0 min 0 min 118 W/m 16,7 km/h (3 Bft) 95,74 %
07.02.2016 14:18 9,4 C 10,0 C 8,3 C 76 % 0 lf 1000,7 hPa 0,0 l/m 0 min 0 min 116 W/m 25,1 km/h (4 Bft) 97,87 %
07.02.2016 14:20 9,4 C 10,0 C 8,3 C 76 % 0 lf 1000,8 hPa 0,0 l/m 0 min 0 min 107 W/m 23,0 km/h (4 Bft) 91,49 %
07.02.2016 14:22 9,4 C 10,0 C 8,3 C 76 % 0 lf 1000,7 hPa 0,0 l/m 0 min 0 min 111 W/m 33,5 km/h (5 Bft) 93,62 %
07.02.2016 14:24 9,4 C 10,0 C 8,3 C 76 % 0 lf 1000,6 hPa 0,0 l/m 0 min 0 min 108 W/m 16,7 km/h (3 Bft) 95,74 %
07.02.2016 14:26 9,4 C 10,0 C 8,3 C 76 % 0 lf 1000,7 hPa 0,0 l/m 0 min 0 min 96 W/m 20,9 km/h (4 Bft) 97,83 %
07.02.2016 14:28 9,4 C 10,0 C 8,3 C 76 % 0 lf 1000,6 hPa 0,0 l/m 0 min 0 min 107 W/m 33,5 km/h (5 Bft) 93,62 %
07.02.2016 14:30 9,4 C 10,0 C 8,3 C 76 % 0 lf 1000,6 hPa 0,0 l/m 0 min 0 min 123 W/m 23,0 km/h (4 Bft) 93,62 %
07.02.2016 14:32 9,4 C 10,0 C 8,3 C 76 % 0 lf 1000,6 hPa 0,0 l/m 0 min 0 min 122 W/m 20,9 km/h (4 Bft) 93,62 %
07.02.2016 14:34 9,4 C 10,0 C 8,3 C 76 % 0 lf 1000,6 hPa 0,0 l/m 0 min 0 min 125 W/m 23,0 km/h (4 Bft) 97,92 %
07.02.2016 14:36 9,4 C 10,0 C 8,3 C 76 % 0 lf 1000,6 hPa 0,0 l/m 0 min 0 min 134 W/m 29,3 km/h (5 Bft) 95,74 %
07.02.2016 14:38 9,4 C 10,0 C 8,3 C 75 % 0 lf 1000,6 hPa 0,0 l/m 0 min 0 min 134 W/m 31,4 km/h (5 Bft) 97,87 %
07.02.2016 14:40 9,4 C 11,1 C 8,3 C 75 % 0 lf 1000,7 hPa 0,0 l/m 0 min 0 min 163 W/m 27,2 km/h (4 Bft) 97,83 %
07.02.2016 14:42 9,4 C 11,7 C 8,3 C 75 % 0 lf 1000,7 hPa 0,0 l/m 2 min 0 min 185 W/m 31,4 km/h (5 Bft) 97,87 %
07.02.2016 14:44 9,4 C 11,7 C 8,3 C 74 % 0 lf 1000,8 hPa 0,0 l/m 2 min 0 min 165 W/m 23,0 km/h (4 Bft) 95,74 %
07.02.2016 14:46 9,4 C 11,1 C 8,3 C 74 % 0 lf 1000,9 hPa 0,0 l/m 0 min 0 min 160 W/m 31,4 km/h (5 Bft) 95,74 %
07.02.2016 14:48 9,5 C 10,6 C 8,3 C 74 % 0 lf 1000,9 hPa 0,0 l/m 0 min 0 min 148 W/m 25,1 km/h (4 Bft) 97,87 %
07.02.2016 14:50 9,5 C 10,6 C 8,3 C 73 % 0 lf 1001,0 hPa 0,0 l/m 0 min 0 min 139 W/m 41,8 km/h (6 Bft) 97,87 %
07.02.2016 14:52 9,5 C 10,6 C 8,3 C 73 % 0 lf 1001,0 hPa 0,0 l/m 0 min 0 min 134 W/m 35,6 km/h (5 Bft) 95,65 %
07.02.2016 14:54 9,5 C 10,0 C 8,3 C 73 % 0 lf 1001,0 hPa 0,0 l/m 0 min 0 min 128 W/m 29,3 km/h (5 Bft) 97,87 %
07.02.2016 14:56 9,5 C 10,0 C 8,3 C 73 % 0 lf 1001,1 hPa 0,0 l/m 0 min 0 min 124 W/m 31,4 km/h (5 Bft) 100,00 %
07.02.2016 14:58 9,4 C 10,0 C 8,3 C 73 % 0 lf 1001,0 hPa 0,0 l/m 0 min 0 min 121 W/m 31,4 km/h (5 Bft) 97,87 %
07.02.2016 15:00 9,5 C 10,6 C 8,3 C 72 % 0 lf 1001,0 hPa 0,0 l/m 0 min 0 min 125 W/m 41,8 km/h (6 Bft) 97,87 %
07.02.2016 15:02 9,4 C 10,6 C 8,3 C 72 % 0 lf 1001,0 hPa 0,0 l/m 2 min 0 min 151 W/m 37,7 km/h (5 Bft) 100,00 %
07.02.2016 15:04 9,5 C 10,6 C 8,3 C 73 % 0 lf 1001,1 hPa 0,0 l/m 2 min 0 min 161 W/m 16,7 km/h (3 Bft) 97,83 %
07.02.2016 15:06 9,5 C 10,6 C 8,9 C 73 % 0 lf 1001,2 hPa 0,0 l/m 2 min 0 min 167 W/m 23,0 km/h (4 Bft) 100,00 %
07.02.2016 15:08 9,5 C 10,6 C 8,9 C 72 % 0 lf 1001,0 hPa 0,0 l/m 2 min 0 min 158 W/m 27,2 km/h (4 Bft) 97,87 %
07.02.2016 15:10 9,5 C 10,6 C 8,9 C 72 % 0 lf 1001,1 hPa 0,0 l/m 2 min 0 min 158 W/m 33,5 km/h (5 Bft) 97,87 %
07.02.2016 15:12 9,6 C 11,1 C 8,9 C 72 % 0 lf 1001,0 hPa 0,0 l/m 2 min 0 min 197 W/m 33,5 km/h (5 Bft) 100,00 %
07.02.2016 15:14 9,6 C 11,1 C 8,9 C 71 % 0 lf 1001,1 hPa 0,0 l/m 2 min 0 min 174 W/m 39,7 km/h (6 Bft) 95,74 %
07.02.2016 15:16 9,6 C 11,1 C 8,3 C 71 % 0 lf 1001,2 hPa 0,0 l/m 0 min 0 min 112 W/m 35,6 km/h (5 Bft) 97,83 %
07.02.2016 15:18 9,6 C 10,6 C 8,3 C 71 % 0 lf 1001,2 hPa 0,0 l/m 0 min 0 min 107 W/m 39,7 km/h (6 Bft) 97,87 %
07.02.2016 15:20 9,6 C 10,6 C 8,3 C 71 % 0 lf 1001,2 hPa 0,0 l/m 0 min 0 min 128 W/m 31,4 km/h (5 Bft) 95,74 %
07.02.2016 15:22 9,6 C 11,1 C 8,3 C 71 % 0 lf 1001,4 hPa 0,0 l/m 2 min 0 min 142 W/m 37,7 km/h (5 Bft) 97,87 %
07.02.2016 15:24 9,6 C 11,1 C 8,3 C 71 % 0 lf 1001,3 hPa 0,0 l/m 2 min 0 min 150 W/m 23,0 km/h (4 Bft) 97,87 %
07.02.2016 15:26 9,6 C 10,6 C 8,3 C 71 % 0 lf 1001,2 hPa 0,0 l/m 2 min 0 min 153 W/m 33,5 km/h (5 Bft) 93,62 %
07.02.2016 15:28 9,6 C 10,6 C 8,3 C 71 % 0 lf 1001,3 hPa 0,0 l/m 2 min 0 min 155 W/m 29,3 km/h (5 Bft) 93,48 %
07.02.2016 15:30 9,6 C 10,6 C 8,3 C 70 % 0 lf 1001,3 hPa 0,0 l/m 2 min 0 min 150 W/m 37,7 km/h (5 Bft) 91,49 %
07.02.2016 15:32 9,6 C 10,6 C 8,3 C 70 % 0 lf 1001,2 hPa 0,0 l/m 0 min 0 min 115 W/m 37,7 km/h (5 Bft) 93,62 %
07.02.2016 15:34 9,6 C 10,0 C 8,3 C 70 % 0 lf 1001,2 hPa 0,0 l/m 0 min 0 min 85 W/m 35,6 km/h (5 Bft) 95,74 %
07.02.2016 15:36 9,6 C 10,0 C 8,3 C 70 % 0 lf 1001,3 hPa 0,0 l/m 0 min 0 min 96 W/m 35,6 km/h (5 Bft) 95,74 %
07.02.2016 15:38 9,6 C 10,6 C 8,3 C 71 % 0 lf 1001,3 hPa 0,0 l/m 2 min 0 min 137 W/m 23,0 km/h (4 Bft) 93,62 %
07.02.2016 15:40 9,6 C 10,6 C 8,3 C 70 % 0 lf 1001,3 hPa 0,0 l/m 2 min 0 min 137 W/m 31,4 km/h (5 Bft) 93,48 %
07.02.2016 15:42 9,6 C 10,6 C 8,3 C 70 % 0 lf 1001,3 hPa 0,0 l/m 2 min 0 min 126 W/m 29,3 km/h (5 Bft) 95,74 %
07.02.2016 15:44 9,6 C 10,6 C 8,3 C 70 % 0 lf 1001,4 hPa 0,0 l/m 2 min 0 min 168 W/m 27,2 km/h (4 Bft) 93,62 %
07.02.2016 15:46 9,7 C 11,1 C 8,9 C 71 % 0 lf 1001,3 hPa 0,0 l/m 2 min 0 min 259 W/m 37,7 km/h (5 Bft) 91,49 %
07.02.2016 15:48 9,7 C 11,7 C 8,9 C 70 % 0 lf 1001,4 hPa 0,0 l/m 2 min 0 min 257 W/m 50,2 km/h (7 Bft) 91,49 %
07.02.2016 15:50 9,7 C 11,1 C 8,9 C 70 % 0 lf 1001,3 hPa 0,0 l/m 2 min 0 min 178 W/m 39,7 km/h (6 Bft) 95,65 %
07.02.2016 15:52 9,7 C 11,1 C 8,9 C 69 % 0 lf 1001,3 hPa 0,0 l/m 2 min 0 min 182 W/m 35,6 km/h (5 Bft) 89,36 %
07.02.2016 15:54 9,8 C 11,1 C 8,9 C 69 % 0 lf 1001,4 hPa 0,0 l/m 2 min 0 min 187 W/m 41,8 km/h (6 Bft) 93,62 %
07.02.2016 15:56 9,8 C 11,1 C 8,9 C 68 % 0 lf 1001,3 hPa 0,0 l/m 2 min 0 min 173 W/m 35,6 km/h (5 Bft) 93,62 %
07.02.2016 15:58 9,8 C 11,1 C 8,9 C 68 % 0 lf 1001,4 hPa 0,0 l/m 2 min 0 min 210 W/m 35,6 km/h (5 Bft) 95,74 %
07.02.2016 16:00 9,8 C 11,1 C 8,9 C 68 % 0 lf 1001,5 hPa 0,0 l/m 2 min 0 min 226 W/m 27,2 km/h (4 Bft) 93,62 %
07.02.2016 16:02 9,9 C 11,1 C 8,9 C 68 % 0 lf 1001,4 hPa 0,0 l/m 2 min 0 min 209 W/m 35,6 km/h (5 Bft) 95,65 %
07.02.2016 16:04 9,9 C 11,1 C 8,9 C 68 % 0 lf 1001,5 hPa 0,0 l/m 2 min 0 min 202 W/m 27,2 km/h (4 Bft) 93,62 %
07.02.2016 16:06 9,9 C 11,1 C 8,9 C 68 % 0 lf 1001,4 hPa 0,0 l/m 2 min 0 min 171 W/m 31,4 km/h (5 Bft) 95,74 %
07.02.2016 16:08 9,9 C 11,1 C 8,9 C 68 % 0 lf 1001,6 hPa 0,0 l/m 2 min 0 min 154 W/m 46,0 km/h (6 Bft) 89,36 %
07.02.2016 16:10 9,9 C 10,6 C 8,3 C 67 % 0 lf 1001,4 hPa 0,0 l/m 2 min 0 min 142 W/m 46,0 km/h (6 Bft) 91,49 %
07.02.2016 16:12 9,9 C 10,6 C 8,3 C 67 % 0 lf 1001,4 hPa 0,0 l/m 2 min 0 min 128 W/m 39,7 km/h (6 Bft) 95,74 %
07.02.2016 16:14 9,9 C 10,6 C 8,3 C 67 % 0 lf 1001,4 hPa 0,0 l/m 2 min 0 min 115 W/m 29,3 km/h (5 Bft) 95,65 %
07.02.2016 16:16 9,8 C 10,0 C 7,8 C 68 % 0 lf 1001,4 hPa 0,0 l/m 2 min 0 min 100 W/m 37,7 km/h (5 Bft) 97,87 %
07.02.2016 16:18 9,8 C 10,0 C 7,8 C 68 % 0 lf 1001,5 hPa 0,0 l/m 2 min 0 min 94 W/m 37,7 km/h (5 Bft) 100,00 %
07.02.2016 16:20 9,7 C 10,0 C 7,8 C 67 % 0 lf 1001,4 hPa 0,0 l/m 2 min 0 min 88 W/m 39,7 km/h (6 Bft) 91,49 %
07.02.2016 16:22 9,7 C 10,0 C 7,8 C 67 % 0 lf 1001,4 hPa 0,0 l/m 2 min 0 min 79 W/m 35,6 km/h (5 Bft) 97,87 %
07.02.2016 16:24 9,6 C 10,0 C 7,8 C 67 % 0 lf 1001,5 hPa 0,0 l/m 0 min 0 min 74 W/m 37,7 km/h (5 Bft) 95,74 %
07.02.2016 16:26 9,6 C 9,4 C 7,8 C 67 % 0 lf 1001,5 hPa 0,0 l/m 0 min 0 min 70 W/m 35,6 km/h (5 Bft) 97,83 %
07.02.2016 16:28 9,5 C 9,4 C 7,8 C 67 % 0 lf 1001,6 hPa 0,0 l/m 0 min 0 min 64 W/m 37,7 km/h (5 Bft) 97,87 %
07.02.2016 16:30 9,5 C 9,4 C 7,8 C 66 % 0 lf 1001,6 hPa 0,0 l/m 0 min 0 min 61 W/m 31,4 km/h (5 Bft) 93,62 %
07.02.2016 16:32 9,4 C 9,4 C 7,2 C 67 % 0 lf 1001,6 hPa 0,0 l/m 0 min 0 min 55 W/m 29,3 km/h (5 Bft) 97,87 %
07.02.2016 16:34 9,4 C 9,4 C 7,2 C 68 % 0 lf 1001,7 hPa 0,0 l/m 0 min 0 min 51 W/m 33,5 km/h (5 Bft) 95,74 %
07.02.2016 16:36 9,4 C 9,4 C 7,2 C 68 % 0 lf 1001,6 hPa 0,0 l/m 0 min 0 min 48 W/m 35,6 km/h (5 Bft) 95,74 %
07.02.2016 16:38 9,3 C 9,4 C 7,2 C 68 % 0 lf 1001,7 hPa 0,0 l/m 0 min 0 min 45 W/m 29,3 km/h (5 Bft) 97,83 %
07.02.2016 16:40 9,3 C 9,4 C 7,2 C 67 % 0 lf 1001,6 hPa 0,0 l/m 0 min 0 min 42 W/m 31,4 km/h (5 Bft) 93,62 %
07.02.2016 16:42 9,3 C 9,4 C 7,2 C 67 % 0 lf 1001,6 hPa 0,0 l/m 0 min 0 min 38 W/m 18,8 km/h (3 Bft) 95,74 %
07.02.2016 16:44 9,2 C 9,4 C 7,2 C 68 % 0 lf 1001,7 hPa 0,0 l/m 0 min 0 min 33 W/m 16,7 km/h (3 Bft) 95,74 %
07.02.2016 16:46 9,2 C 9,4 C 7,2 C 68 % 0 lf 1001,7 hPa 0,0 l/m 0 min 0 min 32 W/m 20,9 km/h (4 Bft) 93,62 %
07.02.2016 16:48 9,2 C 8,9 C 7,2 C 68 % 0 lf 1001,7 hPa 0,0 l/m 0 min 0 min 31 W/m 27,2 km/h (4 Bft) 95,74 %
07.02.2016 16:50 9,2 C 8,9 C 7,2 C 68 % 0 lf 1001,8 hPa 0,0 l/m 0 min 0 min 30 W/m 33,5 km/h (5 Bft) 93,48 %
07.02.2016 16:52 9,1 C 8,9 C 7,2 C 68 % 0 lf 1001,7 hPa 0,0 l/m 0 min 0 min 28 W/m 31,4 km/h (5 Bft) 95,74 %
07.02.2016 16:54 9,1 C 8,9 C 7,2 C 68 % 0 lf 1001,7 hPa 0,0 l/m 0 min 0 min 28 W/m 27,2 km/h (4 Bft) 97,87 %
07.02.2016 16:56 9,0 C 8,9 C 7,2 C 68 % 0 lf 1001,8 hPa 0,0 l/m 0 min 0 min 28 W/m 25,1 km/h (4 Bft) 97,87 %
07.02.2016 16:58 9,0 C 8,9 C 7,2 C 68 % 0 lf 1001,8 hPa 0,0 l/m 0 min 0 min 27 W/m 35,6 km/h (5 Bft) 93,62 %
07.02.2016 17:00 8,9 C 8,9 C 7,2 C 69 % 0 lf 1001,8 hPa 0,0 l/m 0 min 0 min 26 W/m 27,2 km/h (4 Bft) 97,87 %
07.02.2016 17:02 8,9 C 8,9 C 7,2 C 68 % 0 lf 1001,8 hPa 0,0 l/m 0 min 0 min 23 W/m 35,6 km/h (5 Bft) 97,83 %
07.02.2016 17:04 8,9 C 8,9 C 7,2 C 68 % 0 lf 1001,9 hPa 0,0 l/m 0 min 0 min 22 W/m 39,7 km/h (6 Bft) 93,62 %
07.02.2016 17:06 8,9 C 8,9 C 7,2 C 69 % 0 lf 1001,9 hPa 0,0 l/m 0 min 0 min 21 W/m 29,3 km/h (5 Bft) 95,74 %
07.02.2016 17:08 8,8 C 8,9 C 7,2 C 69 % 0 lf 1002,0 hPa 0,0 l/m 0 min 0 min 21 W/m 33,5 km/h (5 Bft) 97,87 %
07.02.2016 17:10 8,8 C 8,9 C 7,2 C 69 % 0 lf 1002,0 hPa 0,0 l/m 0 min 0 min 21 W/m 37,7 km/h (5 Bft) 97,87 %
07.02.2016 17:12 8,8 C 8,9 C 6,7 C 69 % 0 lf 1001,9 hPa 0,0 l/m 2 min 0 min 21 W/m 27,2 km/h (4 Bft) 93,48 %
07.02.2016 17:14 8,8 C 8,3 C 6,7 C 69 % 0 lf 1001,9 hPa 0,0 l/m 2 min 0 min 19 W/m 29,3 km/h (5 Bft) 95,74 %
07.02.2016 17:16 8,7 C 8,3 C 6,7 C 69 % 0 lf 1002,0 hPa 0,0 l/m 0 min 0 min 18 W/m 29,3 km/h (5 Bft) 97,87 %
07.02.2016 17:18 8,7 C 8,3 C 6,7 C 69 % 0 lf 1001,9 hPa 0,0 l/m 0 min 0 min 18 W/m 29,3 km/h (5 Bft) 95,74 %
07.02.2016 17:20 8,7 C 8,3 C 6,7 C 70 % 0 lf 1001,9 hPa 0,0 l/m 0 min 0 min 18 W/m 46,0 km/h (6 Bft) 97,87 %
07.02.2016 17:22 8,6 C 8,3 C 6,7 C 70 % 0 lf 1001,9 hPa 0,0 l/m 0 min 0 min 17 W/m 35,6 km/h (5 Bft) 95,74 %
07.02.2016 17:24 8,6 C 8,3 C 6,7 C 70 % 0 lf 1002,0 hPa 0,0 l/m 0 min 0 min 16 W/m 46,0 km/h (6 Bft) 97,14 %
07.02.2016 17:26 8,6 C 8,3 C 6,7 C 70 % 0 lf 1002,0 hPa 0,0 l/m 0 min 0 min 13 W/m 46,0 km/h (6 Bft) 95,74 %
07.02.2016 17:28 8,5 C 8,3 C 6,7 C 70 % 0 lf 1002,0 hPa 0,0 l/m 0 min 0 min 11 W/m 35,6 km/h (5 Bft) 97,83 %
07.02.2016 17:30 8,5 C 8,3 C 6,7 C 70 % 0 lf 1002,0 hPa 0,0 l/m 0 min 0 min 11 W/m 23,0 km/h (4 Bft) 97,87 %
07.02.2016 17:32 8,4 C 7,8 C 6,1 C 70 % 0 lf 1002,1 hPa 0,0 l/m 0 min 0 min 9 W/m 23,0 km/h (4 Bft) 100,00 %
07.02.2016 17:34 8,4 C 7,8 C 6,1 C 71 % 0 lf 1002,1 hPa 0,0 l/m 0 min 0 min 9 W/m 25,1 km/h (4 Bft) 97,96 %
07.02.2016 17:36 8,3 C 7,8 C 6,1 C 71 % 0 lf 1002,1 hPa 0,0 l/m 0 min 0 min 7 W/m 23,0 km/h (4 Bft) 97,92 %
07.02.2016 17:38 8,2 C 7,8 C 6,1 C 71 % 0 lf 1002,2 hPa 0,0 l/m 0 min 0 min 7 W/m 31,4 km/h (5 Bft) 100,00 %
07.02.2016 17:40 8,2 C 7,8 C 6,1 C 71 % 0 lf 1002,2 hPa 0,0 l/m 0 min 0 min 6 W/m 23,0 km/h (4 Bft) 100,00 %
07.02.2016 17:42 8,1 C 7,8 C 6,1 C 72 % 0 lf 1002,2 hPa 0,0 l/m 0 min 0 min 5 W/m 29,3 km/h (5 Bft) 100,00 %
07.02.2016 17:44 8,1 C 7,8 C 6,1 C 72 % 0 lf 1002,2 hPa 0,0 l/m 0 min 0 min 5 W/m 25,1 km/h (4 Bft) 97,87 %
07.02.2016 17:46 8,0 C 7,8 C 6,1 C 72 % 0 lf 1002,2 hPa 0,0 l/m 0 min 0 min 5 W/m 23,0 km/h (4 Bft) 96,30 %
07.02.2016 17:48 7,9 C 7,8 C 5,6 C 72 % 0 lf 1002,2 hPa 0,0 l/m 0 min 0 min 2 W/m 25,1 km/h (4 Bft) 98,00 %
07.02.2016 17:50 7,9 C 7,2 C 5,6 C 72 % 0 lf 1002,2 hPa 0,0 l/m 0 min 0 min 0 W/m 18,8 km/h (3 Bft) 100,00 %
07.02.2016 17:52 7,9 C 7,2 C 5,6 C 73 % 0 lf 1002,2 hPa 0,0 l/m 0 min 0 min 0 W/m 16,7 km/h (3 Bft) 97,14 %
07.02.2016 17:54 7,8 C 7,2 C 5,6 C 73 % 0 lf 1002,2 hPa 0,0 l/m 0 min 0 min 0 W/m 16,7 km/h (3 Bft) 97,87 %
07.02.2016 17:56 7,8 C 7,2 C 5,6 C 73 % 0 lf 1002,2 hPa 0,0 l/m 0 min 0 min 0 W/m 23,0 km/h (4 Bft) 100,00 %
07.02.2016 17:58 7,7 C 7,2 C 5,6 C 73 % 0 lf 1002,3 hPa 0,0 l/m 0 min 0 min 0 W/m 14,6 km/h (3 Bft) 93,88 %
07.02.2016 18:00 7,7 C 7,2 C 5,6 C 74 % 0 lf 1002,4 hPa 0,0 l/m 0 min 0 min 0 W/m 18,8 km/h (3 Bft) 97,92 %
07.02.2016 18:02 7,7 C 7,2 C 5,6 C 74 % 0 lf 1002,4 hPa 0,0 l/m 0 min 0 min 0 W/m 16,7 km/h (3 Bft) 100,00 %
07.02.2016 18:04 7,6 C 7,2 C 5,6 C 74 % 0 lf 1002,3 hPa 0,0 l/m 0 min 0 min 0 W/m 12,6 km/h (3 Bft) 100,00 %
07.02.2016 18:06 7,6 C 6,7 C 5,6 C 74 % 0 lf 1002,4 hPa 0,0 l/m 0 min 0 min 0 W/m 14,6 km/h (3 Bft) 97,87 %
07.02.2016 18:08 7,6 C 6,7 C 5,0 C 74 % 0 lf 1002,4 hPa 0,0 l/m 0 min 0 min 0 W/m 12,6 km/h (3 Bft) 94,55 %
07.02.2016 18:10 7,5 C 7,2 C 5,6 C 74 % 0 lf 1002,4 hPa 0,0 l/m 0 min 0 min 0 W/m 14,6 km/h (3 Bft) 100,00 %
07.02.2016 18:12 7,5 C 7,2 C 5,0 C 75 % 0 lf 1002,4 hPa 0,0 l/m 0 min 0 min 0 W/m 12,6 km/h (3 Bft) 100,00 %
07.02.2016 18:14 7,4 C 6,7 C 5,6 C 75 % 0 lf 1002,5 hPa 0,0 l/m 0 min 0 min 0 W/m 16,7 km/h (3 Bft) 97,83 %
07.02.2016 18:16 7,4 C 6,7 C 5,0 C 75 % 0 lf 1002,5 hPa 0,0 l/m 0 min 0 min 0 W/m 10,5 km/h (2 Bft) 97,87 %
07.02.2016 18:18 7,4 C 6,7 C 5,0 C 75 % 0 lf 1002,5 hPa 0,0 l/m 0 min 0 min 0 W/m 14,6 km/h (3 Bft) 96,43 %
07.02.2016 18:20 7,4 C 6,7 C 5,0 C 75 % 0 lf 1002,5 hPa 0,0 l/m 0 min 0 min 0 W/m 14,6 km/h (3 Bft) 97,83 %
07.02.2016 18:22 7,3 C 6,7 C 5,0 C 75 % 0 lf 1002,5 hPa 0,0 l/m 0 min 0 min 0 W/m 14,6 km/h (3 Bft) 96,00 %
07.02.2016 18:24 7,3 C 6,7 C 5,0 C 75 % 0 lf 1002,5 hPa 0,0 l/m 0 min 0 min 0 W/m 20,9 km/h (4 Bft) 94,44 %
07.02.2016 18:26 7,3 C 6,7 C 5,0 C 76 % 0 lf 1002,4 hPa 0,0 l/m 0 min 0 min 0 W/m 12,6 km/h (3 Bft) 93,48 %
07.02.2016 18:28 7,2 C 6,7 C 5,0 C 76 % 0 lf 1002,6 hPa 0,0 l/m 0 min 0 min 0 W/m 14,6 km/h (3 Bft) 95,74 %
07.02.2016 18:30 7,2 C 6,7 C 5,0 C 76 % 0 lf 1002,5 hPa 0,0 l/m 0 min 0 min 0 W/m 10,5 km/h (2 Bft) 95,74 %
07.02.2016 18:32 7,2 C 6,7 C 5,0 C 76 % 0 lf 1002,5 hPa 0,0 l/m 0 min 0 min 0 W/m 12,6 km/h (3 Bft) 95,74 %
07.02.2016 18:34 7,2 C 6,7 C 5,0 C 76 % 0 lf 1002,7 hPa 0,0 l/m 0 min 0 min 0 W/m 14,6 km/h (3 Bft) 95,74 %
07.02.2016 18:36 7,1 C 6,7 C 5,0 C 76 % 0 lf 1002,8 hPa 0,0 l/m 0 min 0 min 0 W/m 12,6 km/h (3 Bft) 95,74 %
07.02.2016 18:38 7,1 C 6,7 C 5,0 C 76 % 0 lf 1002,7 hPa 0,0 l/m 0 min 0 min 0 W/m 16,7 km/h (3 Bft) 93,10 %
07.02.2016 18:40 7,1 C 6,7 C 5,0 C 76 % 0 lf 1002,6 hPa 0,0 l/m 0 min 0 min 0 W/m 14,6 km/h (3 Bft) 95,74 %
07.02.2016 18:42 7,1 C 6,7 C 5,0 C 76 % 0 lf 1002,6 hPa 0,0 l/m 0 min 0 min 0 W/m 12,6 km/h (3 Bft) 95,65 %
07.02.2016 18:44 7,1 C 6,7 C 5,0 C 76 % 0 lf 1002,7 hPa 0,0 l/m 0 min 0 min 0 W/m 12,6 km/h (3 Bft) 95,74 %
07.02.2016 18:46 7,0 C 6,7 C 5,0 C 76 % 0 lf 1002,7 hPa 0,0 l/m 0 min 0 min 0 W/m 10,5 km/h (2 Bft) 97,87 %
07.02.2016 18:48 7,0 C 6,7 C 5,0 C 77 % 0 lf 1002,6 hPa 0,0 l/m 0 min 0 min 0 W/m 14,6 km/h (3 Bft) 97,87 %
07.02.2016 18:50 7,0 C 6,7 C 5,0 C 77 % 0 lf 1002,6 hPa 0,0 l/m 0 min 0 min 0 W/m 10,5 km/h (2 Bft) 100,00 %
07.02.2016 18:52 6,9 C 6,7 C 5,0 C 77 % 0 lf 1002,5 hPa 0,0 l/m 0 min 0 min 0 W/m 8,4 km/h (2 Bft) 95,74 %
07.02.2016 18:54 6,9 C 6,7 C 5,0 C 77 % 0 lf 1002,6 hPa 0,0 l/m 0 min 0 min 0 W/m 10,5 km/h (2 Bft) 95,74 %
07.02.2016 18:56 6,9 C 6,7 C 4,4 C 77 % 0 lf 1002,5 hPa 0,0 l/m 0 min 0 min 0 W/m 12,6 km/h (3 Bft) 93,62 %
07.02.2016 18:58 6,9 C 6,7 C 5,0 C 77 % 0 lf 1002,6 hPa 0,0 l/m 0 min 0 min 0 W/m 14,6 km/h (3 Bft) 97,87 %
07.02.2016 19:00 6,9 C 6,7 C 5,0 C 77 % 0 lf 1002,5 hPa 0,0 l/m 0 min 0 min 0 W/m 10,5 km/h (2 Bft) 95,74 %
07.02.2016 19:02 6,8 C 6,7 C 5,0 C 77 % 0 lf 1002,5 hPa 0,0 l/m 0 min 0 min 0 W/m 10,5 km/h (2 Bft) 97,83 %
07.02.2016 19:04 6,8 C 6,7 C 5,0 C 77 % 0 lf 1002,5 hPa 0,0 l/m 0 min 0 min 0 W/m 8,4 km/h (2 Bft) 98,31 %
07.02.2016 19:06 6,8 C 6,1 C 4,4 C 77 % 0 lf 1002,4 hPa 0,0 l/m 0 min 0 min 0 W/m 8,4 km/h (2 Bft) 95,74 %
07.02.2016 19:08 6,8 C 6,7 C 4,4 C 77 % 0 lf 1002,3 hPa 0,0 l/m 0 min 0 min 0 W/m 23,0 km/h (4 Bft) 97,14 %
07.02.2016 19:10 6,8 C 6,7 C 5,0 C 77 % 0 lf 1002,3 hPa 0,0 l/m 0 min 0 min 0 W/m 20,9 km/h (4 Bft) 92,45 %
07.02.2016 19:12 6,8 C 6,7 C 5,0 C 77 % 0 lf 1002,4 hPa 0,0 l/m 0 min 0 min 0 W/m 18,8 km/h (3 Bft) 97,87 %
07.02.2016 19:14 6,8 C 6,7 C 5,0 C 78 % 0 lf 1002,3 hPa 0,0 l/m 0 min 0 min 0 W/m 18,8 km/h (3 Bft) 98,00 %
07.02.2016 19:16 6,8 C 6,7 C 5,0 C 78 % 0 lf 1002,3 hPa 0,0 l/m 0 min 0 min 0 W/m 23,0 km/h (4 Bft) 95,92 %
07.02.2016 19:18 6,8 C 6,7 C 5,0 C 78 % 0 lf 1002,2 hPa 0,0 l/m 0 min 0 min 0 W/m 18,8 km/h (3 Bft) 97,14 %
07.02.2016 19:20 6,8 C 6,7 C 5,0 C 78 % 0 lf 1002,3 hPa 0,0 l/m 0 min 0 min 0 W/m 16,7 km/h (3 Bft) 94,34 %
07.02.2016 19:22 6,8 C 6,7 C 5,0 C 78 % 0 lf 1002,2 hPa 0,0 l/m 0 min 0 min 0 W/m 14,6 km/h (3 Bft) 95,74 %
07.02.2016 19:24 6,8 C 7,2 C 5,0 C 78 % 0 lf 1002,3 hPa 0,0 l/m 0 min 0 min 0 W/m 29,3 km/h (5 Bft) 90,00 %
07.02.2016 19:26 6,8 C 7,2 C 5,0 C 78 % 0 lf 1002,3 hPa 0,0 l/m 0 min 0 min 0 W/m 16,7 km/h (3 Bft) 95,74 %
07.02.2016 19:28 6,8 C 7,2 C 5,0 C 78 % 0 lf 1002,3 hPa 0,0 l/m 0 min 0 min 0 W/m 20,9 km/h (4 Bft) 91,84 %
07.02.2016 19:30 6,8 C 7,2 C 5,0 C 78 % 0 lf 1002,3 hPa 0,0 l/m 0 min 0 min 0 W/m 23,0 km/h (4 Bft) 93,62 %
07.02.2016 19:32 6,8 C 7,2 C 5,6 C 78 % 0 lf 1002,3 hPa 0,0 l/m 0 min 0 min 0 W/m 29,3 km/h (5 Bft) 95,74 %
07.02.2016 19:34 6,9 C 7,2 C 5,6 C 78 % 0 lf 1002,3 hPa 0,0 l/m 0 min 0 min 0 W/m 23,0 km/h (4 Bft) 91,43 %
07.02.2016 19:36 6,9 C 7,2 C 5,6 C 77 % 0 lf 1002,2 hPa 0,0 l/m 0 min 0 min 0 W/m 20,9 km/h (4 Bft) 91,30 %
07.02.2016 19:38 6,9 C 7,2 C 5,6 C 77 % 0 lf 1002,2 hPa 0,0 l/m 0 min 0 min 0 W/m 33,5 km/h (5 Bft) 96,30 %
07.02.2016 19:40 6,9 C 7,2 C 5,6 C 77 % 0 lf 1002,2 hPa 0,0 l/m 0 min 0 min 0 W/m 29,3 km/h (5 Bft) 94,00 %
07.02.2016 19:42 7,0 C 7,2 C 5,6 C 77 % 0 lf 1002,2 hPa 0,0 l/m 0 min 0 min 0 W/m 25,1 km/h (4 Bft) 95,92 %
07.02.2016 19:44 7,0 C 7,2 C 5,6 C 77 % 0 lf 1002,2 hPa 0,0 l/m 0 min 0 min 0 W/m 20,9 km/h (4 Bft) 95,74 %
07.02.2016 19:46 7,1 C 7,2 C 5,6 C 77 % 0 lf 1002,2 hPa 0,0 l/m 0 min 0 min 0 W/m 23,0 km/h (4 Bft) 91,30 %
07.02.2016 19:48 7,1 C 7,2 C 5,6 C 77 % 0 lf 1002,3 hPa 0,0 l/m 0 min 0 min 0 W/m 23,0 km/h (4 Bft) 94,29 %
07.02.2016 19:50 7,1 C 7,2 C 5,6 C 76 % 0 lf 1002,2 hPa 0,0 l/m 0 min 0 min 0 W/m 29,3 km/h (5 Bft) 93,62 %
07.02.2016 19:52 7,1 C 7,2 C 5,6 C 76 % 0 lf 1002,2 hPa 0,0 l/m 0 min 0 min 0 W/m 25,1 km/h (4 Bft) 95,74 %
07.02.2016 19:54 7,1 C 7,2 C 5,6 C 76 % 0 lf 1002,2 hPa 0,0 l/m 0 min 0 min 0 W/m 29,3 km/h (5 Bft) 90,57 %
07.02.2016 19:56 7,2 C 7,2 C 5,6 C 76 % 0 lf 1002,2 hPa 0,0 l/m 0 min 0 min 0 W/m 16,7 km/h (3 Bft) 93,62 %
07.02.2016 19:58 7,2 C 7,2 C 5,6 C 76 % 0 lf 1002,2 hPa 0,0 l/m 0 min 0 min 0 W/m 29,3 km/h (5 Bft) 96,00 %
07.02.2016 20:00 7,2 C 7,2 C 5,6 C 76 % 0 lf 1002,2 hPa 0,0 l/m 0 min 0 min 0 W/m 29,3 km/h (5 Bft) 95,92 %
07.02.2016 20:02 7,2 C 7,2 C 5,6 C 76 % 0 lf 1002,2 hPa 0,0 l/m 0 min 0 min 0 W/m 18,8 km/h (3 Bft) 91,43 %
07.02.2016 20:04 7,2 C 7,2 C 5,6 C 76 % 0 lf 1002,2 hPa 0,0 l/m 0 min 0 min 0 W/m 23,0 km/h (4 Bft) 94,44 %
07.02.2016 20:06 7,2 C 7,2 C 5,6 C 76 % 0 lf 1002,2 hPa 0,0 l/m 0 min 0 min 0 W/m 20,9 km/h (4 Bft) 93,88 %
07.02.2016 20:08 7,2 C 7,2 C 5,6 C 76 % 0 lf 1002,3 hPa 0,0 l/m 0 min 0 min 0 W/m 18,8 km/h (3 Bft) 91,84 %
07.02.2016 20:10 7,2 C 7,2 C 5,6 C 76 % 0 lf 1002,2 hPa 0,0 l/m 0 min 0 min 0 W/m 18,8 km/h (3 Bft) 94,44 %
07.02.2016 20:12 7,2 C 7,2 C 5,6 C 75 % 0 lf 1002,2 hPa 0,0 l/m 0 min 0 min 0 W/m 25,1 km/h (4 Bft) 96,23 %
07.02.2016 20:14 7,2 C 7,2 C 5,6 C 75 % 0 lf 1002,3 hPa 0,0 l/m 0 min 0 min 0 W/m 27,2 km/h (4 Bft) 94,00 %
07.02.2016 20:16 7,2 C 7,2 C 5,6 C 75 % 0 lf 1002,3 hPa 0,0 l/m 0 min 0 min 0 W/m 23,0 km/h (4 Bft) 97,87 %
07.02.2016 20:18 7,2 C 7,2 C 5,6 C 75 % 0 lf 1002,2 hPa 0,0 l/m 0 min 0 min 0 W/m 18,8 km/h (3 Bft) 95,65 %
07.02.2016 20:20 7,2 C 7,2 C 5,6 C 75 % 0 lf 1002,2 hPa 0,0 l/m 0 min 0 min 0 W/m 29,3 km/h (5 Bft) 93,62 %
07.02.2016 20:22 7,2 C 7,2 C 5,6 C 75 % 0 lf 1002,2 hPa 0,0 l/m 0 min 0 min 0 W/m 20,9 km/h (4 Bft) 93,62 %
07.02.2016 20:24 7,2 C 7,2 C 5,6 C 75 % 0 lf 1002,3 hPa 0,0 l/m 0 min 0 min 0 W/m 37,7 km/h (5 Bft) 97,96 %
07.02.2016 20:26 7,2 C 7,2 C 5,6 C 75 % 0 lf 1002,2 hPa 0,0 l/m 0 min 0 min 0 W/m 31,4 km/h (5 Bft) 97,87 %
07.02.2016 20:28 7,2 C 7,2 C 5,6 C 75 % 0 lf 1002,2 hPa 0,0 l/m 0 min 0 min 0 W/m 20,9 km/h (4 Bft) 95,74 %
07.02.2016 20:30 7,2 C 7,2 C 5,6 C 75 % 0 lf 1002,2 hPa 0,0 l/m 0 min 0 min 0 W/m 14,6 km/h (3 Bft) 91,43 %
07.02.2016 20:32 7,2 C 7,2 C 5,6 C 75 % 0 lf 1002,2 hPa 0,0 l/m 0 min 0 min 0 W/m 25,1 km/h (4 Bft) 95,74 %
07.02.2016 20:34 7,2 C 7,2 C 5,6 C 75 % 0 lf 1002,2 hPa 0,0 l/m 0 min 0 min 0 W/m 29,3 km/h (5 Bft) 98,11 %
07.02.2016 20:36 7,2 C 7,2 C 5,6 C 76 % 0 lf 1002,2 hPa 0,0 l/m 0 min 0 min 0 W/m 25,1 km/h (4 Bft) 95,74 %
07.02.2016 20:38 7,2 C 7,2 C 5,6 C 76 % 0 lf 1002,2 hPa 0,0 l/m 0 min 0 min 0 W/m 31,4 km/h (5 Bft) 100,00 %
07.02.2016 20:40 7,2 C 7,2 C 5,6 C 76 % 0 lf 1002,3 hPa 0,0 l/m 0 min 0 min 0 W/m 27,2 km/h (4 Bft) 100,00 %
07.02.2016 20:42 7,2 C 7,2 C 5,6 C 76 % 0 lf 1002,2 hPa 0,0 l/m 0 min 0 min 0 W/m 37,7 km/h (5 Bft) 97,87 %
07.02.2016 20:44 7,2 C 7,2 C 5,6 C 76 % 0 lf 1002,2 hPa 0,0 l/m 0 min 0 min 0 W/m 29,3 km/h (5 Bft) 100,00 %
07.02.2016 20:46 7,2 C 7,2 C 5,6 C 76 % 0 lf 1002,2 hPa 0,0 l/m 0 min 0 min 0 W/m 25,1 km/h (4 Bft) 100,00 %
07.02.2016 20:48 7,2 C 7,2 C 5,6 C 76 % 0 lf 1002,2 hPa 0,0 l/m 0 min 0 min 0 W/m 33,5 km/h (5 Bft) 100,00 %
07.02.2016 20:50 7,2 C 7,2 C 5,6 C 76 % 0 lf 1002,2 hPa 0,0 l/m 0 min 0 min 0 W/m 27,2 km/h (4 Bft) 100,00 %
07.02.2016 20:52 7,2 C 7,2 C 5,6 C 76 % 0 lf 1002,1 hPa 0,0 l/m 0 min 0 min 0 W/m 27,2 km/h (4 Bft) 97,87 %
07.02.2016 20:54 7,2 C 7,2 C 5,6 C 76 % 0 lf 1002,2 hPa 0,0 l/m 0 min 0 min 0 W/m 23,0 km/h (4 Bft) 97,83 %
07.02.2016 20:56 7,2 C 7,2 C 5,6 C 76 % 0 lf 1002,2 hPa 0,0 l/m 0 min 0 min 0 W/m 20,9 km/h (4 Bft) 97,87 %
07.02.2016 20:58 7,2 C 7,2 C 5,6 C 76 % 0 lf 1002,1 hPa 0,0 l/m 0 min 0 min 0 W/m 25,1 km/h (4 Bft) 100,00 %
07.02.2016 21:00 7,2 C 7,2 C 5,6 C 76 % 0 lf 1002,1 hPa 0,0 l/m 0 min 0 min 0 W/m 20,9 km/h (4 Bft) 100,00 %
07.02.2016 21:02 7,1 C 7,2 C 5,6 C 76 % 0 lf 1002,1 hPa 0,0 l/m 0 min 0 min 0 W/m 20,9 km/h (4 Bft) 94,29 %
07.02.2016 21:04 7,1 C 7,2 C 5,6 C 76 % 0 lf 1002,1 hPa 0,0 l/m 0 min 0 min 0 W/m 20,9 km/h (4 Bft) 100,00 %
07.02.2016 21:06 7,1 C 7,2 C 5,0 C 76 % 0 lf 1002,0 hPa 0,0 l/m 0 min 0 min 0 W/m 18,8 km/h (3 Bft) 100,00 %
07.02.2016 21:08 7,1 C 7,2 C 5,6 C 76 % 0 lf 1002,0 hPa 0,0 l/m 0 min 0 min 0 W/m 29,3 km/h (5 Bft) 100,00 %
07.02.2016 21:10 7,1 C 7,2 C 5,0 C 76 % 0 lf 1002,0 hPa 0,0 l/m 0 min 0 min 0 W/m 20,9 km/h (4 Bft) 100,00 %
07.02.2016 21:12 7,1 C 7,2 C 5,0 C 76 % 0 lf 1002,0 hPa 0,0 l/m 0 min 0 min 0 W/m 29,3 km/h (5 Bft) 97,87 %
07.02.2016 21:14 7,1 C 6,7 C 5,0 C 76 % 0 lf 1002,0 hPa 0,0 l/m 0 min 0 min 0 W/m 18,8 km/h (3 Bft) 97,96 %
07.02.2016 21:16 7,1 C 6,7 C 5,0 C 76 % 0 lf 1001,9 hPa 0,0 l/m 0 min 0 min 0 W/m 20,9 km/h (4 Bft) 100,00 %
07.02.2016 21:18 7,0 C 7,2 C 5,0 C 76 % 0 lf 1001,9 hPa 0,0 l/m 0 min 0 min 0 W/m 39,7 km/h (6 Bft) 98,11 %
07.02.2016 21:20 7,0 C 7,2 C 5,6 C 76 % 0 lf 1001,9 hPa 0,0 l/m 0 min 0 min 0 W/m 33,5 km/h (5 Bft) 100,00 %
07.02.2016 21:22 7,0 C 7,2 C 5,6 C 76 % 0 lf 1001,9 hPa 0,0 l/m 0 min 0 min 0 W/m 18,8 km/h (3 Bft) 97,87 %
07.02.2016 21:24 7,0 C 7,2 C 5,0 C 76 % 0 lf 1001,8 hPa 0,0 l/m 0 min 0 min 0 W/m 20,9 km/h (4 Bft) 94,00 %
07.02.2016 21:26 7,0 C 7,2 C 5,0 C 76 % 0 lf 1001,8 hPa 0,0 l/m 0 min 0 min 0 W/m 27,2 km/h (4 Bft) 93,62 %
07.02.2016 21:28 7,0 C 7,2 C 5,6 C 76 % 0 lf 1001,9 hPa 0,0 l/m 0 min 0 min 0 W/m 29,3 km/h (5 Bft) 97,83 %
07.02.2016 21:30 7,0 C 7,2 C 5,6 C 76 % 0 lf 1001,8 hPa 0,0 l/m 0 min 0 min 0 W/m 46,0 km/h (6 Bft) 95,74 %
07.02.2016 21:32 7,1 C 7,2 C 5,6 C 75 % 0 lf 1001,9 hPa 0,0 l/m 0 min 0 min 0 W/m 37,7 km/h (5 Bft) 97,87 %
07.02.2016 21:34 7,1 C 7,2 C 5,6 C 75 % 0 lf 1001,8 hPa 0,0 l/m 0 min 0 min 0 W/m 29,3 km/h (5 Bft) 97,87 %
07.02.2016 21:36 7,1 C 7,2 C 5,6 C 75 % 0 lf 1001,8 hPa 0,0 l/m 0 min 0 min 0 W/m 25,1 km/h (4 Bft) 97,87 %
07.02.2016 21:38 7,2 C 7,2 C 5,6 C 75 % 0 lf 1001,8 hPa 0,0 l/m 0 min 0 min 0 W/m 29,3 km/h (5 Bft) 97,96 %
07.02.2016 21:40 7,2 C 7,2 C 5,6 C 75 % 0 lf 1001,8 hPa 0,0 l/m 0 min 0 min 0 W/m 33,5 km/h (5 Bft) 97,87 %
07.02.2016 21:42 7,2 C 7,2 C 5,6 C 75 % 0 lf 1001,7 hPa 0,0 l/m 0 min 0 min 0 W/m 29,3 km/h (5 Bft) 95,65 %
07.02.2016 21:44 7,2 C 7,2 C 5,6 C 75 % 0 lf 1001,7 hPa 0,0 l/m 0 min 0 min 0 W/m 33,5 km/h (5 Bft) 97,87 %
07.02.2016 21:46 7,2 C 7,2 C 5,6 C 75 % 0 lf 1001,7 hPa 0,0 l/m 0 min 0 min 0 W/m 33,5 km/h (5 Bft) 93,62 %
07.02.2016 21:48 7,2 C 7,2 C 5,6 C 75 % 0 lf 1001,7 hPa 0,0 l/m 0 min 0 min 0 W/m 33,5 km/h (5 Bft) 97,87 %
07.02.2016 21:50 7,2 C 7,2 C 5,6 C 75 % 0 lf 1001,6 hPa 0,0 l/m 0 min 0 min 0 W/m 23,0 km/h (4 Bft) 95,74 %
07.02.2016 21:52 7,2 C 7,2 C 5,6 C 75 % 0 lf 1001,7 hPa 0,0 l/m 0 min 0 min 0 W/m 29,3 km/h (5 Bft) 95,74 %
07.02.2016 21:54 7,2 C 7,2 C 5,6 C 75 % 0 lf 1001,7 hPa 0,0 l/m 0 min 0 min 0 W/m 37,7 km/h (5 Bft) 97,83 %
07.02.2016 21:56 7,2 C 7,2 C 5,6 C 75 % 0 lf 1001,6 hPa 0,0 l/m 0 min 0 min 0 W/m 33,5 km/h (5 Bft) 91,43 %
07.02.2016 21:58 7,2 C 7,2 C 5,6 C 75 % 0 lf 1001,6 hPa 0,0 l/m 0 min 0 min 0 W/m 39,7 km/h (6 Bft) 91,49 %
07.02.2016 22:00 7,2 C 7,2 C 5,6 C 75 % 0 lf 1001,6 hPa 0,0 l/m 0 min 0 min 0 W/m 27,2 km/h (4 Bft) 91,49 %
07.02.2016 22:02 7,2 C 7,2 C 5,6 C 75 % 0 lf 1001,6 hPa 0,0 l/m 0 min 0 min 0 W/m 23,0 km/h (4 Bft) 90,57 %
07.02.2016 22:04 7,2 C 7,2 C 5,6 C 74 % 0 lf 1001,6 hPa 0,0 l/m 0 min 0 min 0 W/m 27,2 km/h (4 Bft) 91,49 %
07.02.2016 22:06 7,2 C 7,2 C 5,6 C 74 % 0 lf 1001,5 hPa 0,0 l/m 0 min 0 min 0 W/m 33,5 km/h (5 Bft) 94,00 %
07.02.2016 22:08 7,2 C 7,2 C 5,6 C 74 % 0 lf 1001,5 hPa 0,0 l/m 0 min 0 min 0 W/m 37,7 km/h (5 Bft) 89,80 %
07.02.2016 22:10 7,2 C 7,2 C 5,6 C 74 % 0 lf 1001,5 hPa 0,0 l/m 0 min 0 min 0 W/m 23,0 km/h (4 Bft) 93,62 %
07.02.2016 22:12 7,2 C 7,2 C 5,6 C 74 % 0 lf 1001,5 hPa 0,0 l/m 0 min 0 min 0 W/m 25,1 km/h (4 Bft) 94,29 %
07.02.2016 22:14 7,2 C 7,2 C 5,6 C 74 % 0 lf 1001,5 hPa 0,0 l/m 0 min 0 min 0 W/m 31,4 km/h (5 Bft) 94,34 %
07.02.2016 22:16 7,2 C 7,2 C 5,6 C 74 % 0 lf 1001,5 hPa 0,0 l/m 0 min 0 min 0 W/m 35,6 km/h (5 Bft) 93,62 %
07.02.2016 22:18 7,2 C 7,2 C 5,6 C 74 % 0 lf 1001,4 hPa 0,0 l/m 0 min 0 min 0 W/m 29,3 km/h (5 Bft) 95,74 %
07.02.2016 22:20 7,2 C 7,2 C 5,6 C 74 % 0 lf 1001,3 hPa 0,0 l/m 0 min 0 min 0 W/m 43,9 km/h (6 Bft) 92,00 %
07.02.2016 22:22 7,2 C 7,2 C 5,6 C 74 % 0 lf 1001,3 hPa 0,0 l/m 0 min 0 min 0 W/m 35,6 km/h (5 Bft) 95,74 %
07.02.2016 22:24 7,2 C 7,2 C 5,6 C 74 % 0 lf 1001,4 hPa 0,0 l/m 0 min 0 min 0 W/m 39,7 km/h (6 Bft) 95,74 %
07.02.2016 22:26 7,2 C 7,2 C 5,6 C 74 % 0 lf 1001,3 hPa 0,0 l/m 0 min 0 min 0 W/m 18,8 km/h (3 Bft) 97,83 %
07.02.2016 22:28 7,2 C 7,2 C 5,6 C 74 % 0 lf 1001,3 hPa 0,0 l/m 0 min 0 min 0 W/m 31,4 km/h (5 Bft) 89,36 %
07.02.2016 22:30 7,2 C 7,2 C 5,6 C 75 % 0 lf 1001,3 hPa 0,0 l/m 0 min 0 min 0 W/m 27,2 km/h (4 Bft) 97,87 %
07.02.2016 22:32 7,2 C 7,2 C 5,6 C 75 % 0 lf 1001,3 hPa 0,0 l/m 0 min 0 min 0 W/m 25,1 km/h (4 Bft) 95,92 %
07.02.2016 22:34 7,2 C 7,2 C 5,6 C 75 % 0 lf 1001,3 hPa 0,0 l/m 0 min 0 min 0 W/m 29,3 km/h (5 Bft) 94,29 %
07.02.2016 22:36 7,2 C 7,2 C 5,6 C 75 % 0 lf 1001,2 hPa 0,0 l/m 0 min 0 min 0 W/m 29,3 km/h (5 Bft) 98,15 %
07.02.2016 22:38 7,2 C 7,2 C 5,6 C 75 % 0 lf 1001,2 hPa 0,0 l/m 0 min 0 min 0 W/m 37,7 km/h (5 Bft) 93,88 %
07.02.2016 22:40 7,2 C 7,2 C 5,6 C 75 % 0 lf 1001,1 hPa 0,0 l/m 0 min 0 min 0 W/m 39,7 km/h (6 Bft) 95,92 %
07.02.2016 22:42 7,2 C 7,2 C 5,6 C 75 % 0 lf 1001,0 hPa 0,0 l/m 0 min 0 min 0 W/m 27,2 km/h (4 Bft) 100,00 %
07.02.2016 22:44 7,2 C 7,2 C 5,6 C 75 % 0 lf 1001,0 hPa 0,0 l/m 0 min 0 min 0 W/m 37,7 km/h (5 Bft) 100,00 %
07.02.2016 22:46 7,2 C 7,2 C 5,6 C 75 % 0 lf 1001,0 hPa 0,0 l/m 0 min 0 min 0 W/m 37,7 km/h (5 Bft) 100,00 %
07.02.2016 22:48 7,2 C 7,2 C 5,6 C 75 % 0 lf 1001,0 hPa 0,0 l/m 0 min 0 min 0 W/m 31,4 km/h (5 Bft) 100,00 %
07.02.2016 22:50 7,1 C 7,2 C 5,0 C 76 % 0 lf 1001,0 hPa 0,0 l/m 0 min 0 min 0 W/m 35,6 km/h (5 Bft) 97,87 %
07.02.2016 22:52 7,1 C 7,2 C 5,6 C 76 % 0 lf 1001,0 hPa 0,0 l/m 0 min 0 min 0 W/m 23,0 km/h (4 Bft) 100,00 %
07.02.2016 22:54 7,1 C 7,2 C 5,6 C 76 % 0 lf 1000,9 hPa 0,0 l/m 0 min 0 min 0 W/m 33,5 km/h (5 Bft) 97,87 %
07.02.2016 22:56 7,1 C 7,2 C 5,6 C 76 % 0 lf 1000,9 hPa 0,0 l/m 0 min 0 min 0 W/m 46,0 km/h (6 Bft) 97,87 %
07.02.2016 22:58 7,1 C 7,2 C 5,6 C 76 % 0 lf 1000,9 hPa 0,0 l/m 0 min 0 min 0 W/m 41,8 km/h (6 Bft) 94,29 %
07.02.2016 23:00 7,2 C 7,2 C 5,6 C 76 % 0 lf 1000,8 hPa 0,0 l/m 0 min 0 min 0 W/m 31,4 km/h (5 Bft) 100,00 %
07.02.2016 23:02 7,2 C 7,2 C 5,6 C 76 % 0 lf 1000,8 hPa 0,0 l/m 0 min 0 min 0 W/m 35,6 km/h (5 Bft) 100,00 %
07.02.2016 23:04 7,2 C 7,2 C 5,6 C 76 % 0 lf 1000,8 hPa 0,0 l/m 0 min 0 min 0 W/m 41,8 km/h (6 Bft) 100,00 %
07.02.2016 23:06 7,2 C 7,2 C 5,6 C 76 % 0 lf 1000,8 hPa 0,0 l/m 0 min 0 min 0 W/m 29,3 km/h (5 Bft) 100,00 %
07.02.2016 23:08 7,2 C 7,2 C 5,6 C 76 % 0 lf 1000,7 hPa 0,0 l/m 0 min 0 min 0 W/m 20,9 km/h (4 Bft) 96,00 %
07.02.2016 23:10 7,2 C 7,2 C 5,6 C 76 % 0 lf 1000,6 hPa 0,0 l/m 0 min 0 min 0 W/m 31,4 km/h (5 Bft) 97,87 %
07.02.2016 23:12 7,2 C 7,2 C 5,6 C 76 % 0 lf 1000,5 hPa 0,0 l/m 0 min 0 min 0 W/m 41,8 km/h (6 Bft) 100,00 %
07.02.2016 23:14 7,2 C 7,2 C 5,6 C 76 % 0 lf 1000,6 hPa 0,0 l/m 0 min 0 min 0 W/m 35,6 km/h (5 Bft) 97,14 %
07.02.2016 23:16 7,2 C 7,2 C 5,6 C 76 % 0 lf 1000,4 hPa 0,0 l/m 0 min 0 min 0 W/m 37,7 km/h (5 Bft) 100,00 %
07.02.2016 23:18 7,2 C 7,2 C 5,6 C 76 % 0 lf 1000,3 hPa 0,0 l/m 0 min 0 min 0 W/m 27,2 km/h (4 Bft) 94,00 %
07.02.2016 23:20 7,2 C 7,2 C 5,6 C 76 % 0 lf 1000,3 hPa 0,0 l/m 0 min 0 min 0 W/m 50,2 km/h (7 Bft) 97,87 %
07.02.2016 23:22 7,2 C 7,2 C 5,6 C 76 % 0 lf 1000,2 hPa 0,0 l/m 0 min 0 min 0 W/m 46,0 km/h (6 Bft) 97,96 %
07.02.2016 23:24 7,2 C 7,2 C 5,6 C 76 % 0 lf 1000,4 hPa 0,0 l/m 0 min 0 min 0 W/m 29,3 km/h (5 Bft) 91,43 %
07.02.2016 23:26 7,2 C 7,2 C 5,6 C 76 % 0 lf 1000,4 hPa 0,0 l/m 0 min 0 min 0 W/m 39,7 km/h (6 Bft) 94,34 %
07.02.2016 23:28 7,3 C 7,2 C 5,6 C 76 % 0 lf 1000,3 hPa 0,0 l/m 0 min 0 min 0 W/m 25,1 km/h (4 Bft) 93,62 %
07.02.2016 23:30 7,3 C 7,2 C 5,6 C 76 % 0 lf 1000,4 hPa 0,0 l/m 0 min 0 min 0 W/m 35,6 km/h (5 Bft) 95,74 %
07.02.2016 23:32 7,3 C 7,2 C 5,6 C 76 % 0 lf 1000,3 hPa 0,0 l/m 0 min 0 min 0 W/m 46,0 km/h (6 Bft) 97,87 %
07.02.2016 23:34 7,3 C 7,2 C 5,6 C 76 % 0 lf 1000,3 hPa 0,0 l/m 0 min 0 min 0 W/m 35,6 km/h (5 Bft) 98,00 %
07.02.2016 23:36 7,3 C 7,2 C 5,6 C 76 % 0 lf 1000,3 hPa 0,0 l/m 0 min 0 min 0 W/m 31,4 km/h (5 Bft) 95,65 %
07.02.2016 23:38 7,3 C 7,2 C 5,6 C 76 % 0 lf 1000,2 hPa 0,0 l/m 0 min 0 min 0 W/m 41,8 km/h (6 Bft) 97,87 %
07.02.2016 23:40 7,3 C 7,2 C 5,6 C 76 % 0 lf 1000,1 hPa 0,0 l/m 0 min 0 min 0 W/m 29,3 km/h (5 Bft) 95,74 %
07.02.2016 23:42 7,3 C 7,2 C 5,6 C 76 % 0 lf 1000,1 hPa 0,0 l/m 0 min 0 min 0 W/m 31,4 km/h (5 Bft) 95,74 %
07.02.2016 23:44 7,3 C 7,2 C 5,6 C 76 % 0 lf 1000,1 hPa 0,0 l/m 0 min 0 min 0 W/m 35,6 km/h (5 Bft) 95,74 %
07.02.2016 23:46 7,3 C 7,2 C 5,6 C 76 % 0 lf 1000,1 hPa 0,0 l/m 0 min 0 min 0 W/m 31,4 km/h (5 Bft) 100,00 %
07.02.2016 23:48 7,3 C 7,2 C 5,6 C 76 % 0 lf 1000,1 hPa 0,0 l/m 0 min 0 min 0 W/m 27,2 km/h (4 Bft) 97,83 %
07.02.2016 23:50 7,3 C 7,2 C 5,6 C 76 % 0 lf 1000,0 hPa 0,0 l/m 0 min 0 min 0 W/m 33,5 km/h (5 Bft) 95,92 %
07.02.2016 23:52 7,3 C 7,2 C 5,6 C 76 % 0 lf 1000,1 hPa 0,0 l/m 0 min 0 min 0 W/m 29,3 km/h (5 Bft) 94,44 %
07.02.2016 23:54 7,3 C 7,2 C 5,6 C 76 % 0 lf 1000,1 hPa 0,0 l/m 0 min 0 min 0 W/m 31,4 km/h (5 Bft) 94,34 %
07.02.2016 23:56 7,3 C 7,2 C 5,6 C 76 % 0 lf 1000,0 hPa 0,0 l/m 0 min 0 min 0 W/m 35,6 km/h (5 Bft) 94,00 %
07.02.2016 23:58 7,3 C 7,2 C 5,6 C 76 % 0 lf 1000,0 hPa 0,0 l/m 0 min 0 min 0 W/m 50,2 km/h (7 Bft) 93,88 %
_ Min-Zeit 19:16 19:06 18:56 16:30 00:00 07:02 - - - - 18:52 02:50
Minimum _ 6,7 C 6,1 C 4,4 C 66 % 0 lf 995,9 hPa - - - - 8,4 km/h (2 Bft) 87,23 %
_ Max-Zeit 06:48 06:36 06:44 10:16 08:36 18:36 08:42 11:08 07:18 11:28 06:36 01:34
Maximum _ 11,3 C 11,7 C 10,0 C 93 % 15 lf 1002,8 hPa 0,2 l/m 2 min 2 min 268 W/m 56,5 km/h
S (7 Bft)
100,00 %
Durchschnitt _ 9,0 C 9,2 C 7,3 C 78 % 2 lf 999,6 hPa #0,8 l/m #2:48 h #1:36 h 112 W/m 26,6 km/h (4 Bft) 96,09 %
© 2016 W. Hausmann